<?xml version="1.0" encoding="UTF-8" standalone="no" ?>
<gpx xmlns="http://www.topografix.com/GPX/1/1" xmlns:xsi="http://www.w3.org/2001/XMLSchema-instance" xsi:schemaLocation="http://www.topografix.com/GPX/1/1 http://www.topografix.com/GPX/1/1/gpx.xsd" version="1.1" creator="VisuGPX - https://www.visugpx.com">
  <metadata>
    <name>Parcours VTT FFC Saillans</name>
  </metadata>
  <trk>
    <name><![CDATA[VTT N°5 rouge - Les Balcons de Blacons - 32km - déniv 780 m]]></name>
    <extensions>
      <line xmlns="http://www.topografix.com/GPX/gpx_style/0/2">
        <color>fc0019</color>
        <width>4</width>
      </line>
    </extensions>
    <trkseg>
      <trkpt lat="44.69682" lon="5.19908">
        <ele>268.2</ele>
        <time>2022-11-17T11:21:12Z</time>
      </trkpt>
      <trkpt lat="44.69693" lon="5.19909">
        <ele>269.2</ele>
        <time>2022-11-17T11:21:12Z</time>
      </trkpt>
      <trkpt lat="44.6969" lon="5.19955">
        <ele>268.2</ele>
        <time>2022-11-17T11:21:12Z</time>
      </trkpt>
      <trkpt lat="44.69698" lon="5.19971">
        <ele>268.3</ele>
        <time>2022-11-17T11:21:12Z</time>
      </trkpt>
      <trkpt lat="44.69727" lon="5.19992">
        <ele>271.6</ele>
        <time>2022-11-17T11:21:12Z</time>
      </trkpt>
      <trkpt lat="44.69736" lon="5.20006">
        <ele>274.3</ele>
        <time>2022-11-17T11:21:12Z</time>
      </trkpt>
      <trkpt lat="44.69745" lon="5.20012">
        <ele>276.7</ele>
        <time>2022-11-17T11:21:12Z</time>
      </trkpt>
      <trkpt lat="44.69825" lon="5.19928">
        <ele>285.3</ele>
        <time>2022-11-17T11:21:12Z</time>
      </trkpt>
      <trkpt lat="44.69894" lon="5.19825">
        <ele>284.2</ele>
        <time>2022-11-17T11:21:12Z</time>
      </trkpt>
      <trkpt lat="44.69917" lon="5.19805">
        <ele>286</ele>
        <time>2022-11-17T11:21:12Z</time>
      </trkpt>
      <trkpt lat="44.69977" lon="5.19783">
        <ele>288.9</ele>
        <time>2022-11-17T11:21:12Z</time>
      </trkpt>
      <trkpt lat="44.70031" lon="5.19787">
        <ele>292.1</ele>
        <time>2022-11-17T11:21:12Z</time>
      </trkpt>
      <trkpt lat="44.70149" lon="5.19778">
        <ele>286.8</ele>
        <time>2022-11-17T11:21:12Z</time>
      </trkpt>
      <trkpt lat="44.70197" lon="5.198">
        <ele>291.6</ele>
        <time>2022-11-17T11:21:12Z</time>
      </trkpt>
      <trkpt lat="44.70262" lon="5.19789">
        <ele>290.8</ele>
        <time>2022-11-17T11:21:12Z</time>
      </trkpt>
      <trkpt lat="44.70434" lon="5.19817">
        <ele>303.9</ele>
        <time>2022-11-17T11:21:12Z</time>
      </trkpt>
      <trkpt lat="44.70445" lon="5.19814">
        <ele>305.2</ele>
        <time>2022-11-17T11:21:12Z</time>
      </trkpt>
      <trkpt lat="44.70532" lon="5.19731">
        <ele>313.2</ele>
        <time>2022-11-17T11:21:12Z</time>
      </trkpt>
      <trkpt lat="44.70554" lon="5.19685">
        <ele>310.2</ele>
        <time>2022-11-17T11:21:12Z</time>
      </trkpt>
      <trkpt lat="44.70567" lon="5.1967">
        <ele>310.7</ele>
        <time>2022-11-17T11:21:12Z</time>
      </trkpt>
      <trkpt lat="44.70589" lon="5.19659">
        <ele>314.9</ele>
        <time>2022-11-17T11:21:12Z</time>
      </trkpt>
      <trkpt lat="44.70632" lon="5.19662">
        <ele>319.6</ele>
        <time>2022-11-17T11:21:12Z</time>
      </trkpt>
      <trkpt lat="44.70665" lon="5.19675">
        <ele>321.9</ele>
        <time>2022-11-17T11:21:12Z</time>
      </trkpt>
      <trkpt lat="44.70674" lon="5.19673">
        <ele>320.9</ele>
        <time>2022-11-17T11:21:12Z</time>
      </trkpt>
      <trkpt lat="44.70793" lon="5.19719">
        <ele>332.3</ele>
        <time>2022-11-17T11:21:12Z</time>
      </trkpt>
      <trkpt lat="44.70899" lon="5.19681">
        <ele>318</ele>
        <time>2022-11-17T11:21:12Z</time>
      </trkpt>
      <trkpt lat="44.70935" lon="5.19647">
        <ele>314.3</ele>
        <time>2022-11-17T11:21:12Z</time>
      </trkpt>
      <trkpt lat="44.70953" lon="5.19639">
        <ele>313.3</ele>
        <time>2022-11-17T11:21:12Z</time>
      </trkpt>
      <trkpt lat="44.7096" lon="5.19632">
        <ele>313.2</ele>
        <time>2022-11-17T11:21:12Z</time>
      </trkpt>
      <trkpt lat="44.70961" lon="5.19622">
        <ele>312.8</ele>
        <time>2022-11-17T11:21:12Z</time>
      </trkpt>
      <trkpt lat="44.70961" lon="5.19612">
        <ele>312.2</ele>
        <time>2022-11-17T11:21:12Z</time>
      </trkpt>
      <trkpt lat="44.70956" lon="5.19602">
        <ele>312.5</ele>
        <time>2022-11-17T11:21:12Z</time>
      </trkpt>
      <trkpt lat="44.70944" lon="5.19591">
        <ele>311.7</ele>
        <time>2022-11-17T11:21:12Z</time>
      </trkpt>
      <trkpt lat="44.7094" lon="5.19583">
        <ele>311.6</ele>
        <time>2022-11-17T11:21:12Z</time>
      </trkpt>
      <trkpt lat="44.7094" lon="5.19571">
        <ele>311.9</ele>
        <time>2022-11-17T11:21:12Z</time>
      </trkpt>
      <trkpt lat="44.70964" lon="5.19511">
        <ele>318.1</ele>
        <time>2022-11-17T11:21:12Z</time>
      </trkpt>
      <trkpt lat="44.71018" lon="5.19447">
        <ele>331.3</ele>
        <time>2022-11-17T11:21:12Z</time>
      </trkpt>
      <trkpt lat="44.71027" lon="5.19396">
        <ele>328.5</ele>
        <time>2022-11-17T11:21:12Z</time>
      </trkpt>
      <trkpt lat="44.71073" lon="5.19296">
        <ele>334.5</ele>
        <time>2022-11-17T11:21:12Z</time>
      </trkpt>
      <trkpt lat="44.71088" lon="5.19278">
        <ele>335.4</ele>
        <time>2022-11-17T11:21:12Z</time>
      </trkpt>
      <trkpt lat="44.71411" lon="5.19152">
        <ele>341.9</ele>
        <time>2022-11-17T11:21:12Z</time>
      </trkpt>
      <trkpt lat="44.71481" lon="5.19108">
        <ele>342.3</ele>
        <time>2022-11-17T11:21:12Z</time>
      </trkpt>
      <trkpt lat="44.715" lon="5.19111">
        <ele>344.1</ele>
        <time>2022-11-17T11:21:12Z</time>
      </trkpt>
      <trkpt lat="44.71654" lon="5.19164">
        <ele>364.5</ele>
        <time>2022-11-17T11:21:12Z</time>
      </trkpt>
      <trkpt lat="44.71676" lon="5.1919">
        <ele>368.8</ele>
        <time>2022-11-17T11:21:12Z</time>
      </trkpt>
      <trkpt lat="44.71686" lon="5.19192">
        <ele>370.1</ele>
        <time>2022-11-17T11:21:12Z</time>
      </trkpt>
      <trkpt lat="44.71699" lon="5.19201">
        <ele>373.1</ele>
        <time>2022-11-17T11:21:12Z</time>
      </trkpt>
      <trkpt lat="44.71696" lon="5.19214">
        <ele>374.1</ele>
        <time>2022-11-17T11:21:12Z</time>
      </trkpt>
      <trkpt lat="44.71632" lon="5.19198">
        <ele>366.3</ele>
        <time>2022-11-17T11:21:12Z</time>
      </trkpt>
      <trkpt lat="44.71612" lon="5.19202">
        <ele>366.3</ele>
        <time>2022-11-17T11:21:12Z</time>
      </trkpt>
      <trkpt lat="44.71574" lon="5.19231">
        <ele>372.5</ele>
        <time>2022-11-17T11:21:12Z</time>
      </trkpt>
      <trkpt lat="44.71562" lon="5.19248">
        <ele>377.3</ele>
        <time>2022-11-17T11:21:12Z</time>
      </trkpt>
      <trkpt lat="44.71554" lon="5.19254">
        <ele>379.2</ele>
        <time>2022-11-17T11:21:12Z</time>
      </trkpt>
      <trkpt lat="44.71544" lon="5.19256">
        <ele>379.9</ele>
        <time>2022-11-17T11:21:12Z</time>
      </trkpt>
      <trkpt lat="44.71503" lon="5.19245">
        <ele>375.4</ele>
        <time>2022-11-17T11:21:12Z</time>
      </trkpt>
      <trkpt lat="44.7148" lon="5.19252">
        <ele>376.1</ele>
        <time>2022-11-17T11:21:12Z</time>
      </trkpt>
      <trkpt lat="44.71428" lon="5.19305">
        <ele>394.1</ele>
        <time>2022-11-17T11:21:12Z</time>
      </trkpt>
      <trkpt lat="44.7142" lon="5.1931">
        <ele>395.3</ele>
        <time>2022-11-17T11:21:12Z</time>
      </trkpt>
      <trkpt lat="44.71388" lon="5.19312">
        <ele>396.7</ele>
        <time>2022-11-17T11:21:12Z</time>
      </trkpt>
      <trkpt lat="44.71381" lon="5.19316">
        <ele>397.4</ele>
        <time>2022-11-17T11:21:12Z</time>
      </trkpt>
      <trkpt lat="44.71184" lon="5.19415">
        <ele>409.2</ele>
        <time>2022-11-17T11:21:12Z</time>
      </trkpt>
      <trkpt lat="44.71177" lon="5.19424">
        <ele>408.1</ele>
        <time>2022-11-17T11:21:12Z</time>
      </trkpt>
      <trkpt lat="44.71175" lon="5.19434">
        <ele>408.1</ele>
        <time>2022-11-17T11:21:12Z</time>
      </trkpt>
      <trkpt lat="44.71176" lon="5.19448">
        <ele>409.4</ele>
        <time>2022-11-17T11:21:12Z</time>
      </trkpt>
      <trkpt lat="44.7122" lon="5.19574">
        <ele>413.3</ele>
        <time>2022-11-17T11:21:12Z</time>
      </trkpt>
      <trkpt lat="44.71225" lon="5.19581">
        <ele>412.9</ele>
        <time>2022-11-17T11:21:12Z</time>
      </trkpt>
      <trkpt lat="44.71233" lon="5.19584">
        <ele>413.5</ele>
        <time>2022-11-17T11:21:12Z</time>
      </trkpt>
      <trkpt lat="44.71278" lon="5.19582">
        <ele>420.6</ele>
        <time>2022-11-17T11:21:12Z</time>
      </trkpt>
      <trkpt lat="44.71307" lon="5.1959">
        <ele>425.2</ele>
        <time>2022-11-17T11:21:12Z</time>
      </trkpt>
      <trkpt lat="44.71321" lon="5.19598">
        <ele>426.9</ele>
        <time>2022-11-17T11:21:12Z</time>
      </trkpt>
      <trkpt lat="44.71338" lon="5.19621">
        <ele>427.2</ele>
        <time>2022-11-17T11:21:12Z</time>
      </trkpt>
      <trkpt lat="44.71349" lon="5.19652">
        <ele>423.1</ele>
        <time>2022-11-17T11:21:12Z</time>
      </trkpt>
      <trkpt lat="44.71369" lon="5.19681">
        <ele>420.8</ele>
        <time>2022-11-17T11:21:12Z</time>
      </trkpt>
      <trkpt lat="44.71387" lon="5.19695">
        <ele>421.8</ele>
        <time>2022-11-17T11:21:12Z</time>
      </trkpt>
      <trkpt lat="44.714" lon="5.19701">
        <ele>421.7</ele>
        <time>2022-11-17T11:21:12Z</time>
      </trkpt>
      <trkpt lat="44.7146" lon="5.19708">
        <ele>421.7</ele>
        <time>2022-11-17T11:21:12Z</time>
      </trkpt>
      <trkpt lat="44.7147" lon="5.19703">
        <ele>423</ele>
        <time>2022-11-17T11:21:12Z</time>
      </trkpt>
      <trkpt lat="44.71499" lon="5.19676">
        <ele>425.2</ele>
        <time>2022-11-17T11:21:12Z</time>
      </trkpt>
      <trkpt lat="44.71539" lon="5.19655">
        <ele>424.6</ele>
        <time>2022-11-17T11:21:12Z</time>
      </trkpt>
      <trkpt lat="44.71592" lon="5.19642">
        <ele>430.1</ele>
        <time>2022-11-17T11:21:12Z</time>
      </trkpt>
      <trkpt lat="44.71623" lon="5.19648">
        <ele>425.5</ele>
        <time>2022-11-17T11:21:12Z</time>
      </trkpt>
      <trkpt lat="44.71633" lon="5.19646">
        <ele>425.4</ele>
        <time>2022-11-17T11:21:12Z</time>
      </trkpt>
      <trkpt lat="44.71666" lon="5.19621">
        <ele>428.4</ele>
        <time>2022-11-17T11:21:12Z</time>
      </trkpt>
      <trkpt lat="44.7191" lon="5.19538">
        <ele>404.5</ele>
        <time>2022-11-17T11:21:12Z</time>
      </trkpt>
      <trkpt lat="44.71943" lon="5.19565">
        <ele>396.5</ele>
        <time>2022-11-17T11:21:12Z</time>
      </trkpt>
      <trkpt lat="44.71956" lon="5.19568">
        <ele>393.7</ele>
        <time>2022-11-17T11:21:12Z</time>
      </trkpt>
      <trkpt lat="44.71966" lon="5.19567">
        <ele>392.7</ele>
        <time>2022-11-17T11:21:12Z</time>
      </trkpt>
      <trkpt lat="44.72012" lon="5.19526">
        <ele>393.5</ele>
        <time>2022-11-17T11:21:12Z</time>
      </trkpt>
      <trkpt lat="44.72038" lon="5.19529">
        <ele>388.1</ele>
        <time>2022-11-17T11:21:12Z</time>
      </trkpt>
      <trkpt lat="44.72116" lon="5.19522">
        <ele>384</ele>
        <time>2022-11-17T11:21:12Z</time>
      </trkpt>
      <trkpt lat="44.72232" lon="5.19473">
        <ele>384.4</ele>
        <time>2022-11-17T11:21:12Z</time>
      </trkpt>
      <trkpt lat="44.72283" lon="5.19481">
        <ele>395.2</ele>
        <time>2022-11-17T11:21:12Z</time>
      </trkpt>
      <trkpt lat="44.72335" lon="5.19432">
        <ele>395.7</ele>
        <time>2022-11-17T11:21:12Z</time>
      </trkpt>
      <trkpt lat="44.72389" lon="5.19404">
        <ele>400.8</ele>
        <time>2022-11-17T11:21:12Z</time>
      </trkpt>
      <trkpt lat="44.7239" lon="5.19366">
        <ele>392.8</ele>
        <time>2022-11-17T11:21:12Z</time>
      </trkpt>
      <trkpt lat="44.72425" lon="5.1931">
        <ele>390.7</ele>
        <time>2022-11-17T11:21:12Z</time>
      </trkpt>
      <trkpt lat="44.72424" lon="5.19112">
        <ele>422</ele>
        <time>2022-11-17T11:21:12Z</time>
      </trkpt>
      <trkpt lat="44.72392" lon="5.19017">
        <ele>419.5</ele>
        <time>2022-11-17T11:21:12Z</time>
      </trkpt>
      <trkpt lat="44.7238" lon="5.18994">
        <ele>418.2</ele>
        <time>2022-11-17T11:21:12Z</time>
      </trkpt>
      <trkpt lat="44.72377" lon="5.18984">
        <ele>418.3</ele>
        <time>2022-11-17T11:21:12Z</time>
      </trkpt>
      <trkpt lat="44.72376" lon="5.18972">
        <ele>419.3</ele>
        <time>2022-11-17T11:21:12Z</time>
      </trkpt>
      <trkpt lat="44.72384" lon="5.18937">
        <ele>421.6</ele>
        <time>2022-11-17T11:21:12Z</time>
      </trkpt>
      <trkpt lat="44.7238" lon="5.18918">
        <ele>421.9</ele>
        <time>2022-11-17T11:21:12Z</time>
      </trkpt>
      <trkpt lat="44.72367" lon="5.18915">
        <ele>423.7</ele>
        <time>2022-11-17T11:21:12Z</time>
      </trkpt>
      <trkpt lat="44.72338" lon="5.18943">
        <ele>427.6</ele>
        <time>2022-11-17T11:21:12Z</time>
      </trkpt>
      <trkpt lat="44.72302" lon="5.19086">
        <ele>433.1</ele>
        <time>2022-11-17T11:21:12Z</time>
      </trkpt>
      <trkpt lat="44.72295" lon="5.19087">
        <ele>435.6</ele>
        <time>2022-11-17T11:21:12Z</time>
      </trkpt>
      <trkpt lat="44.72293" lon="5.19075">
        <ele>437.5</ele>
        <time>2022-11-17T11:21:12Z</time>
      </trkpt>
      <trkpt lat="44.72308" lon="5.18972">
        <ele>439.8</ele>
        <time>2022-11-17T11:21:12Z</time>
      </trkpt>
      <trkpt lat="44.72308" lon="5.18935">
        <ele>439.3</ele>
        <time>2022-11-17T11:21:12Z</time>
      </trkpt>
      <trkpt lat="44.72312" lon="5.1891">
        <ele>438</ele>
        <time>2022-11-17T11:21:12Z</time>
      </trkpt>
      <trkpt lat="44.72318" lon="5.18896">
        <ele>437</ele>
        <time>2022-11-17T11:21:12Z</time>
      </trkpt>
      <trkpt lat="44.72425" lon="5.18752">
        <ele>438.5</ele>
        <time>2022-11-17T11:21:12Z</time>
      </trkpt>
      <trkpt lat="44.7243" lon="5.18738">
        <ele>439.2</ele>
        <time>2022-11-17T11:21:12Z</time>
      </trkpt>
      <trkpt lat="44.72429" lon="5.18715">
        <ele>440.4</ele>
        <time>2022-11-17T11:21:12Z</time>
      </trkpt>
      <trkpt lat="44.72438" lon="5.18702">
        <ele>441.3</ele>
        <time>2022-11-17T11:21:12Z</time>
      </trkpt>
      <trkpt lat="44.72448" lon="5.18668">
        <ele>444.8</ele>
        <time>2022-11-17T11:21:12Z</time>
      </trkpt>
      <trkpt lat="44.72457" lon="5.1866">
        <ele>445</ele>
        <time>2022-11-17T11:21:12Z</time>
      </trkpt>
      <trkpt lat="44.72457" lon="5.18645">
        <ele>446.1</ele>
        <time>2022-11-17T11:21:12Z</time>
      </trkpt>
      <trkpt lat="44.72464" lon="5.18627">
        <ele>447.8</ele>
        <time>2022-11-17T11:21:12Z</time>
      </trkpt>
      <trkpt lat="44.72508" lon="5.18547">
        <ele>459.9</ele>
        <time>2022-11-17T11:21:12Z</time>
      </trkpt>
      <trkpt lat="44.72538" lon="5.18512">
        <ele>469</ele>
        <time>2022-11-17T11:21:12Z</time>
      </trkpt>
      <trkpt lat="44.72549" lon="5.18509">
        <ele>472.2</ele>
        <time>2022-11-17T11:21:12Z</time>
      </trkpt>
      <trkpt lat="44.7257" lon="5.18521">
        <ele>476.1</ele>
        <time>2022-11-17T11:21:12Z</time>
      </trkpt>
      <trkpt lat="44.72578" lon="5.18522">
        <ele>477.2</ele>
        <time>2022-11-17T11:21:12Z</time>
      </trkpt>
      <trkpt lat="44.72589" lon="5.18517">
        <ele>477.1</ele>
        <time>2022-11-17T11:21:12Z</time>
      </trkpt>
      <trkpt lat="44.72595" lon="5.18499">
        <ele>476.8</ele>
        <time>2022-11-17T11:21:12Z</time>
      </trkpt>
      <trkpt lat="44.72598" lon="5.18474">
        <ele>478.4</ele>
        <time>2022-11-17T11:21:12Z</time>
      </trkpt>
      <trkpt lat="44.72613" lon="5.18434">
        <ele>483.3</ele>
        <time>2022-11-17T11:21:12Z</time>
      </trkpt>
      <trkpt lat="44.72593" lon="5.1851">
        <ele>476.7</ele>
        <time>2022-11-17T11:21:12Z</time>
      </trkpt>
      <trkpt lat="44.72584" lon="5.18521">
        <ele>478</ele>
        <time>2022-11-17T11:21:12Z</time>
      </trkpt>
      <trkpt lat="44.7257" lon="5.18521">
        <ele>476.1</ele>
        <time>2022-11-17T11:21:12Z</time>
      </trkpt>
      <trkpt lat="44.72555" lon="5.18511">
        <ele>474</ele>
        <time>2022-11-17T11:21:12Z</time>
      </trkpt>
      <trkpt lat="44.72544" lon="5.18509">
        <ele>470.6</ele>
        <time>2022-11-17T11:21:12Z</time>
      </trkpt>
      <trkpt lat="44.72532" lon="5.1852">
        <ele>467.1</ele>
        <time>2022-11-17T11:21:12Z</time>
      </trkpt>
      <trkpt lat="44.72459" lon="5.18635">
        <ele>446.8</ele>
        <time>2022-11-17T11:21:12Z</time>
      </trkpt>
      <trkpt lat="44.72457" lon="5.1866">
        <ele>445</ele>
        <time>2022-11-17T11:21:12Z</time>
      </trkpt>
      <trkpt lat="44.72495" lon="5.18591">
        <ele>454.7</ele>
        <time>2022-11-17T11:21:12Z</time>
      </trkpt>
      <trkpt lat="44.72506" lon="5.1858">
        <ele>457.3</ele>
        <time>2022-11-17T11:21:12Z</time>
      </trkpt>
      <trkpt lat="44.72515" lon="5.18575">
        <ele>459.4</ele>
        <time>2022-11-17T11:21:12Z</time>
      </trkpt>
      <trkpt lat="44.72523" lon="5.18575">
        <ele>460.9</ele>
        <time>2022-11-17T11:21:12Z</time>
      </trkpt>
      <trkpt lat="44.72539" lon="5.18583">
        <ele>462.6</ele>
        <time>2022-11-17T11:21:12Z</time>
      </trkpt>
      <trkpt lat="44.72551" lon="5.18582">
        <ele>464.6</ele>
        <time>2022-11-17T11:21:12Z</time>
      </trkpt>
      <trkpt lat="44.72563" lon="5.18572">
        <ele>467.6</ele>
        <time>2022-11-17T11:21:12Z</time>
      </trkpt>
      <trkpt lat="44.72575" lon="5.18567">
        <ele>469.6</ele>
        <time>2022-11-17T11:21:12Z</time>
      </trkpt>
      <trkpt lat="44.72598" lon="5.18569">
        <ele>468</ele>
        <time>2022-11-17T11:21:12Z</time>
      </trkpt>
      <trkpt lat="44.72609" lon="5.18561">
        <ele>468.4</ele>
        <time>2022-11-17T11:21:12Z</time>
      </trkpt>
      <trkpt lat="44.72614" lon="5.18537">
        <ele>471</ele>
        <time>2022-11-17T11:21:12Z</time>
      </trkpt>
      <trkpt lat="44.72614" lon="5.18514">
        <ele>473.2</ele>
        <time>2022-11-17T11:21:12Z</time>
      </trkpt>
      <trkpt lat="44.72618" lon="5.18492">
        <ele>474</ele>
        <time>2022-11-17T11:21:12Z</time>
      </trkpt>
      <trkpt lat="44.72661" lon="5.18401">
        <ele>482.1</ele>
        <time>2022-11-17T11:21:12Z</time>
      </trkpt>
      <trkpt lat="44.72679" lon="5.18379">
        <ele>484.8</ele>
        <time>2022-11-17T11:21:12Z</time>
      </trkpt>
      <trkpt lat="44.72731" lon="5.18348">
        <ele>487.6</ele>
        <time>2022-11-17T11:21:12Z</time>
      </trkpt>
      <trkpt lat="44.72737" lon="5.1834">
        <ele>488.9</ele>
        <time>2022-11-17T11:21:12Z</time>
      </trkpt>
      <trkpt lat="44.72747" lon="5.18318">
        <ele>493.3</ele>
        <time>2022-11-17T11:21:12Z</time>
      </trkpt>
      <trkpt lat="44.72813" lon="5.18244">
        <ele>505.4</ele>
        <time>2022-11-17T11:21:12Z</time>
      </trkpt>
      <trkpt lat="44.72831" lon="5.18213">
        <ele>510.5</ele>
        <time>2022-11-17T11:21:12Z</time>
      </trkpt>
      <trkpt lat="44.72838" lon="5.18206">
        <ele>511.6</ele>
        <time>2022-11-17T11:21:12Z</time>
      </trkpt>
      <trkpt lat="44.72853" lon="5.18211">
        <ele>512.2</ele>
        <time>2022-11-17T11:21:12Z</time>
      </trkpt>
      <trkpt lat="44.7286" lon="5.18219">
        <ele>512.1</ele>
        <time>2022-11-17T11:21:12Z</time>
      </trkpt>
      <trkpt lat="44.72879" lon="5.18256">
        <ele>510.6</ele>
        <time>2022-11-17T11:21:12Z</time>
      </trkpt>
      <trkpt lat="44.72892" lon="5.18261">
        <ele>510.5</ele>
        <time>2022-11-17T11:21:12Z</time>
      </trkpt>
      <trkpt lat="44.72977" lon="5.18149">
        <ele>503.3</ele>
        <time>2022-11-17T11:21:12Z</time>
      </trkpt>
      <trkpt lat="44.72995" lon="5.18147">
        <ele>501.1</ele>
        <time>2022-11-17T11:21:12Z</time>
      </trkpt>
      <trkpt lat="44.73009" lon="5.1817">
        <ele>503.1</ele>
        <time>2022-11-17T11:21:12Z</time>
      </trkpt>
      <trkpt lat="44.73028" lon="5.18248">
        <ele>512</ele>
        <time>2022-11-17T11:21:12Z</time>
      </trkpt>
      <trkpt lat="44.73026" lon="5.18438">
        <ele>512</ele>
        <time>2022-11-17T11:21:12Z</time>
      </trkpt>
      <trkpt lat="44.73037" lon="5.18454">
        <ele>511.7</ele>
        <time>2022-11-17T11:21:12Z</time>
      </trkpt>
      <trkpt lat="44.73045" lon="5.18458">
        <ele>512</ele>
        <time>2022-11-17T11:21:12Z</time>
      </trkpt>
      <trkpt lat="44.73069" lon="5.18461">
        <ele>515.2</ele>
        <time>2022-11-17T11:21:12Z</time>
      </trkpt>
      <trkpt lat="44.73076" lon="5.18469">
        <ele>514.9</ele>
        <time>2022-11-17T11:21:12Z</time>
      </trkpt>
      <trkpt lat="44.73101" lon="5.18513">
        <ele>513.7</ele>
        <time>2022-11-17T11:21:12Z</time>
      </trkpt>
      <trkpt lat="44.73109" lon="5.18521">
        <ele>513.6</ele>
        <time>2022-11-17T11:21:12Z</time>
      </trkpt>
      <trkpt lat="44.7312" lon="5.18523">
        <ele>512.3</ele>
        <time>2022-11-17T11:21:12Z</time>
      </trkpt>
      <trkpt lat="44.73126" lon="5.18517">
        <ele>511.9</ele>
        <time>2022-11-17T11:21:12Z</time>
      </trkpt>
      <trkpt lat="44.73131" lon="5.18498">
        <ele>512.5</ele>
        <time>2022-11-17T11:21:12Z</time>
      </trkpt>
      <trkpt lat="44.73129" lon="5.18425">
        <ele>520.3</ele>
        <time>2022-11-17T11:21:12Z</time>
      </trkpt>
      <trkpt lat="44.73171" lon="5.18348">
        <ele>528.7</ele>
        <time>2022-11-17T11:21:12Z</time>
      </trkpt>
      <trkpt lat="44.7318" lon="5.18344">
        <ele>528.4</ele>
        <time>2022-11-17T11:21:12Z</time>
      </trkpt>
      <trkpt lat="44.73227" lon="5.18341">
        <ele>520.3</ele>
        <time>2022-11-17T11:21:12Z</time>
      </trkpt>
      <trkpt lat="44.73233" lon="5.18332">
        <ele>520.5</ele>
        <time>2022-11-17T11:21:12Z</time>
      </trkpt>
      <trkpt lat="44.73242" lon="5.18297">
        <ele>523</ele>
        <time>2022-11-17T11:21:12Z</time>
      </trkpt>
      <trkpt lat="44.73262" lon="5.18122">
        <ele>524.3</ele>
        <time>2022-11-17T11:21:12Z</time>
      </trkpt>
      <trkpt lat="44.73256" lon="5.1808">
        <ele>530.1</ele>
        <time>2022-11-17T11:21:12Z</time>
      </trkpt>
      <trkpt lat="44.73261" lon="5.18063">
        <ele>530.5</ele>
        <time>2022-11-17T11:21:12Z</time>
      </trkpt>
      <trkpt lat="44.73278" lon="5.18058">
        <ele>524.7</ele>
        <time>2022-11-17T11:21:12Z</time>
      </trkpt>
      <trkpt lat="44.73287" lon="5.18049">
        <ele>523.7</ele>
        <time>2022-11-17T11:21:12Z</time>
      </trkpt>
      <trkpt lat="44.73292" lon="5.18039">
        <ele>524.4</ele>
        <time>2022-11-17T11:21:12Z</time>
      </trkpt>
      <trkpt lat="44.73305" lon="5.17986">
        <ele>531.8</ele>
        <time>2022-11-17T11:21:12Z</time>
      </trkpt>
      <trkpt lat="44.73311" lon="5.17978">
        <ele>533.3</ele>
        <time>2022-11-17T11:21:12Z</time>
      </trkpt>
      <trkpt lat="44.73341" lon="5.17955">
        <ele>539.8</ele>
        <time>2022-11-17T11:21:12Z</time>
      </trkpt>
      <trkpt lat="44.73351" lon="5.17958">
        <ele>542.5</ele>
        <time>2022-11-17T11:21:12Z</time>
      </trkpt>
      <trkpt lat="44.73371" lon="5.18046">
        <ele>537</ele>
        <time>2022-11-17T11:21:12Z</time>
      </trkpt>
      <trkpt lat="44.73376" lon="5.18055">
        <ele>536.8</ele>
        <time>2022-11-17T11:21:12Z</time>
      </trkpt>
      <trkpt lat="44.73389" lon="5.18052">
        <ele>539.6</ele>
        <time>2022-11-17T11:21:12Z</time>
      </trkpt>
      <trkpt lat="44.73406" lon="5.18033">
        <ele>541.1</ele>
        <time>2022-11-17T11:21:12Z</time>
      </trkpt>
      <trkpt lat="44.73421" lon="5.18022">
        <ele>542.5</ele>
        <time>2022-11-17T11:21:12Z</time>
      </trkpt>
      <trkpt lat="44.73436" lon="5.1802">
        <ele>541.9</ele>
        <time>2022-11-17T11:21:12Z</time>
      </trkpt>
      <trkpt lat="44.73444" lon="5.18023">
        <ele>539.9</ele>
        <time>2022-11-17T11:21:12Z</time>
      </trkpt>
      <trkpt lat="44.73457" lon="5.18035">
        <ele>540.8</ele>
        <time>2022-11-17T11:21:12Z</time>
      </trkpt>
      <trkpt lat="44.73465" lon="5.18067">
        <ele>537.1</ele>
        <time>2022-11-17T11:21:12Z</time>
      </trkpt>
      <trkpt lat="44.73474" lon="5.18077">
        <ele>538.2</ele>
        <time>2022-11-17T11:21:12Z</time>
      </trkpt>
      <trkpt lat="44.73605" lon="5.18023">
        <ele>547.5</ele>
        <time>2022-11-17T11:21:12Z</time>
      </trkpt>
      <trkpt lat="44.73625" lon="5.18024">
        <ele>548.7</ele>
        <time>2022-11-17T11:21:12Z</time>
      </trkpt>
      <trkpt lat="44.73676" lon="5.18053">
        <ele>550.3</ele>
        <time>2022-11-17T11:21:12Z</time>
      </trkpt>
      <trkpt lat="44.73743" lon="5.1811">
        <ele>553.7</ele>
        <time>2022-11-17T11:21:12Z</time>
      </trkpt>
      <trkpt lat="44.73792" lon="5.18172">
        <ele>554.8</ele>
        <time>2022-11-17T11:21:12Z</time>
      </trkpt>
      <trkpt lat="44.73828" lon="5.1819">
        <ele>554.6</ele>
        <time>2022-11-17T11:21:12Z</time>
      </trkpt>
      <trkpt lat="44.73848" lon="5.18189">
        <ele>556.3</ele>
        <time>2022-11-17T11:21:12Z</time>
      </trkpt>
      <trkpt lat="44.73848" lon="5.18189">
        <ele>556.3</ele>
        <time>2022-11-17T11:21:12Z</time>
      </trkpt>
      <trkpt lat="44.73856" lon="5.18197">
        <ele>557.2</ele>
        <time>2022-11-17T11:21:12Z</time>
      </trkpt>
      <trkpt lat="44.73918" lon="5.18204">
        <ele>571.5</ele>
        <time>2022-11-17T11:21:12Z</time>
      </trkpt>
      <trkpt lat="44.73927" lon="5.18203">
        <ele>573.4</ele>
        <time>2022-11-17T11:21:12Z</time>
      </trkpt>
      <trkpt lat="44.73936" lon="5.18204">
        <ele>576.1</ele>
        <time>2022-11-17T11:21:12Z</time>
      </trkpt>
      <trkpt lat="44.74005" lon="5.1816">
        <ele>578.8</ele>
        <time>2022-11-17T11:21:12Z</time>
      </trkpt>
      <trkpt lat="44.74024" lon="5.18155">
        <ele>580.2</ele>
        <time>2022-11-17T11:21:12Z</time>
      </trkpt>
      <trkpt lat="44.74038" lon="5.18156">
        <ele>582</ele>
        <time>2022-11-17T11:21:12Z</time>
      </trkpt>
      <trkpt lat="44.74053" lon="5.18164">
        <ele>584.4</ele>
        <time>2022-11-17T11:21:12Z</time>
      </trkpt>
      <trkpt lat="44.74062" lon="5.18158">
        <ele>584.8</ele>
        <time>2022-11-17T11:21:12Z</time>
      </trkpt>
      <trkpt lat="44.74078" lon="5.17995">
        <ele>592.9</ele>
        <time>2022-11-17T11:21:12Z</time>
      </trkpt>
      <trkpt lat="44.741" lon="5.17931">
        <ele>598.5</ele>
        <time>2022-11-17T11:21:12Z</time>
      </trkpt>
      <trkpt lat="44.74263" lon="5.17647">
        <ele>599.9</ele>
        <time>2022-11-17T11:21:12Z</time>
      </trkpt>
      <trkpt lat="44.74273" lon="5.1764">
        <ele>599.6</ele>
        <time>2022-11-17T11:21:12Z</time>
      </trkpt>
      <trkpt lat="44.74283" lon="5.17646">
        <ele>600</ele>
        <time>2022-11-17T11:21:12Z</time>
      </trkpt>
      <trkpt lat="44.74306" lon="5.17674">
        <ele>598.7</ele>
        <time>2022-11-17T11:21:12Z</time>
      </trkpt>
      <trkpt lat="44.74337" lon="5.17739">
        <ele>597.5</ele>
        <time>2022-11-17T11:21:12Z</time>
      </trkpt>
      <trkpt lat="44.74347" lon="5.17745">
        <ele>597.4</ele>
        <time>2022-11-17T11:21:12Z</time>
      </trkpt>
      <trkpt lat="44.74376" lon="5.17748">
        <ele>595.5</ele>
        <time>2022-11-17T11:21:12Z</time>
      </trkpt>
      <trkpt lat="44.7439" lon="5.17742">
        <ele>593.1</ele>
        <time>2022-11-17T11:21:12Z</time>
      </trkpt>
      <trkpt lat="44.744" lon="5.17741">
        <ele>591.8</ele>
        <time>2022-11-17T11:21:12Z</time>
      </trkpt>
      <trkpt lat="44.74411" lon="5.17745">
        <ele>591.1</ele>
        <time>2022-11-17T11:21:12Z</time>
      </trkpt>
      <trkpt lat="44.74435" lon="5.17777">
        <ele>588.3</ele>
        <time>2022-11-17T11:21:12Z</time>
      </trkpt>
      <trkpt lat="44.74474" lon="5.17862">
        <ele>583.5</ele>
        <time>2022-11-17T11:21:12Z</time>
      </trkpt>
      <trkpt lat="44.74489" lon="5.17923">
        <ele>581</ele>
        <time>2022-11-17T11:21:12Z</time>
      </trkpt>
      <trkpt lat="44.74495" lon="5.17936">
        <ele>580.1</ele>
        <time>2022-11-17T11:21:12Z</time>
      </trkpt>
      <trkpt lat="44.74498" lon="5.17951">
        <ele>579.4</ele>
        <time>2022-11-17T11:21:12Z</time>
      </trkpt>
      <trkpt lat="44.7449" lon="5.17986">
        <ele>581.9</ele>
        <time>2022-11-17T11:21:12Z</time>
      </trkpt>
      <trkpt lat="44.74494" lon="5.17999">
        <ele>581</ele>
        <time>2022-11-17T11:21:12Z</time>
      </trkpt>
      <trkpt lat="44.7453" lon="5.18048">
        <ele>584.1</ele>
        <time>2022-11-17T11:21:12Z</time>
      </trkpt>
      <trkpt lat="44.74563" lon="5.18061">
        <ele>580.5</ele>
        <time>2022-11-17T11:21:12Z</time>
      </trkpt>
      <trkpt lat="44.74589" lon="5.18062">
        <ele>577.6</ele>
        <time>2022-11-17T11:21:12Z</time>
      </trkpt>
      <trkpt lat="44.74688" lon="5.18022">
        <ele>566.9</ele>
        <time>2022-11-17T11:21:12Z</time>
      </trkpt>
      <trkpt lat="44.74705" lon="5.18007">
        <ele>564.3</ele>
        <time>2022-11-17T11:21:12Z</time>
      </trkpt>
      <trkpt lat="44.74733" lon="5.17996">
        <ele>560.6</ele>
        <time>2022-11-17T11:21:12Z</time>
      </trkpt>
      <trkpt lat="44.74748" lon="5.17979">
        <ele>558</ele>
        <time>2022-11-17T11:21:12Z</time>
      </trkpt>
      <trkpt lat="44.74752" lon="5.17967">
        <ele>556.5</ele>
        <time>2022-11-17T11:21:12Z</time>
      </trkpt>
      <trkpt lat="44.74759" lon="5.17963">
        <ele>554.6</ele>
        <time>2022-11-17T11:21:12Z</time>
      </trkpt>
      <trkpt lat="44.7477" lon="5.17966">
        <ele>553.2</ele>
        <time>2022-11-17T11:21:12Z</time>
      </trkpt>
      <trkpt lat="44.74777" lon="5.17959">
        <ele>551.6</ele>
        <time>2022-11-17T11:21:12Z</time>
      </trkpt>
      <trkpt lat="44.74781" lon="5.17948">
        <ele>550.5</ele>
        <time>2022-11-17T11:21:12Z</time>
      </trkpt>
      <trkpt lat="44.74786" lon="5.17958">
        <ele>549.3</ele>
        <time>2022-11-17T11:21:12Z</time>
      </trkpt>
      <trkpt lat="44.74796" lon="5.17943">
        <ele>546.9</ele>
        <time>2022-11-17T11:21:12Z</time>
      </trkpt>
      <trkpt lat="44.748" lon="5.17931">
        <ele>544.7</ele>
        <time>2022-11-17T11:21:12Z</time>
      </trkpt>
      <trkpt lat="44.74802" lon="5.1792">
        <ele>543.4</ele>
        <time>2022-11-17T11:21:12Z</time>
      </trkpt>
      <trkpt lat="44.74808" lon="5.17915">
        <ele>542</ele>
        <time>2022-11-17T11:21:12Z</time>
      </trkpt>
      <trkpt lat="44.74814" lon="5.17959">
        <ele>541.2</ele>
        <time>2022-11-17T11:21:12Z</time>
      </trkpt>
      <trkpt lat="44.74821" lon="5.17956">
        <ele>539.1</ele>
        <time>2022-11-17T11:21:12Z</time>
      </trkpt>
      <trkpt lat="44.74828" lon="5.17925">
        <ele>537.4</ele>
        <time>2022-11-17T11:21:12Z</time>
      </trkpt>
      <trkpt lat="44.74833" lon="5.17917">
        <ele>536</ele>
        <time>2022-11-17T11:21:12Z</time>
      </trkpt>
      <trkpt lat="44.74848" lon="5.17926">
        <ele>532.8</ele>
        <time>2022-11-17T11:21:12Z</time>
      </trkpt>
      <trkpt lat="44.74858" lon="5.17948">
        <ele>529.4</ele>
        <time>2022-11-17T11:21:12Z</time>
      </trkpt>
      <trkpt lat="44.74857" lon="5.17983">
        <ele>525.4</ele>
        <time>2022-11-17T11:21:12Z</time>
      </trkpt>
      <trkpt lat="44.74849" lon="5.18006">
        <ele>522.7</ele>
        <time>2022-11-17T11:21:12Z</time>
      </trkpt>
      <trkpt lat="44.74901" lon="5.17976">
        <ele>512.3</ele>
        <time>2022-11-17T11:21:12Z</time>
      </trkpt>
      <trkpt lat="44.74925" lon="5.17936">
        <ele>506.4</ele>
        <time>2022-11-17T11:21:12Z</time>
      </trkpt>
      <trkpt lat="44.74931" lon="5.17912">
        <ele>503.8</ele>
        <time>2022-11-17T11:21:12Z</time>
      </trkpt>
      <trkpt lat="44.7493" lon="5.179">
        <ele>503.8</ele>
        <time>2022-11-17T11:21:12Z</time>
      </trkpt>
      <trkpt lat="44.74937" lon="5.17902">
        <ele>500.1</ele>
        <time>2022-11-17T11:21:12Z</time>
      </trkpt>
      <trkpt lat="44.74946" lon="5.17942">
        <ele>495.1</ele>
        <time>2022-11-17T11:21:12Z</time>
      </trkpt>
      <trkpt lat="44.74946" lon="5.17953">
        <ele>494.5</ele>
        <time>2022-11-17T11:21:12Z</time>
      </trkpt>
      <trkpt lat="44.74944" lon="5.17966">
        <ele>494.9</ele>
        <time>2022-11-17T11:21:12Z</time>
      </trkpt>
      <trkpt lat="44.74944" lon="5.18011">
        <ele>488.6</ele>
        <time>2022-11-17T11:21:12Z</time>
      </trkpt>
      <trkpt lat="44.74932" lon="5.18036">
        <ele>489.3</ele>
        <time>2022-11-17T11:21:12Z</time>
      </trkpt>
      <trkpt lat="44.74892" lon="5.18098">
        <ele>487.5</ele>
        <time>2022-11-17T11:21:12Z</time>
      </trkpt>
      <trkpt lat="44.74899" lon="5.18104">
        <ele>486.4</ele>
        <time>2022-11-17T11:21:12Z</time>
      </trkpt>
      <trkpt lat="44.7495" lon="5.18088">
        <ele>485.5</ele>
        <time>2022-11-17T11:21:12Z</time>
      </trkpt>
      <trkpt lat="44.75044" lon="5.17982">
        <ele>481.5</ele>
        <time>2022-11-17T11:21:12Z</time>
      </trkpt>
      <trkpt lat="44.75052" lon="5.1798">
        <ele>481.8</ele>
        <time>2022-11-17T11:21:12Z</time>
      </trkpt>
      <trkpt lat="44.75067" lon="5.17982">
        <ele>482.6</ele>
        <time>2022-11-17T11:21:12Z</time>
      </trkpt>
      <trkpt lat="44.75082" lon="5.17979">
        <ele>482.4</ele>
        <time>2022-11-17T11:21:12Z</time>
      </trkpt>
      <trkpt lat="44.75096" lon="5.1796">
        <ele>483.7</ele>
        <time>2022-11-17T11:21:12Z</time>
      </trkpt>
      <trkpt lat="44.75099" lon="5.17945">
        <ele>484.8</ele>
        <time>2022-11-17T11:21:12Z</time>
      </trkpt>
      <trkpt lat="44.75064" lon="5.17894">
        <ele>483.9</ele>
        <time>2022-11-17T11:21:12Z</time>
      </trkpt>
      <trkpt lat="44.75057" lon="5.17876">
        <ele>484.6</ele>
        <time>2022-11-17T11:21:12Z</time>
      </trkpt>
      <trkpt lat="44.75062" lon="5.17739">
        <ele>490.3</ele>
        <time>2022-11-17T11:21:12Z</time>
      </trkpt>
      <trkpt lat="44.7505" lon="5.17673">
        <ele>489.9</ele>
        <time>2022-11-17T11:21:12Z</time>
      </trkpt>
      <trkpt lat="44.75052" lon="5.17639">
        <ele>491.6</ele>
        <time>2022-11-17T11:21:12Z</time>
      </trkpt>
      <trkpt lat="44.75046" lon="5.17631">
        <ele>491.5</ele>
        <time>2022-11-17T11:21:12Z</time>
      </trkpt>
      <trkpt lat="44.75029" lon="5.17637">
        <ele>488.4</ele>
        <time>2022-11-17T11:21:12Z</time>
      </trkpt>
      <trkpt lat="44.75015" lon="5.17637">
        <ele>485</ele>
        <time>2022-11-17T11:21:12Z</time>
      </trkpt>
      <trkpt lat="44.75009" lon="5.17627">
        <ele>484.3</ele>
        <time>2022-11-17T11:21:12Z</time>
      </trkpt>
      <trkpt lat="44.75005" lon="5.17613">
        <ele>484.4</ele>
        <time>2022-11-17T11:21:12Z</time>
      </trkpt>
      <trkpt lat="44.75003" lon="5.17596">
        <ele>485.2</ele>
        <time>2022-11-17T11:21:12Z</time>
      </trkpt>
      <trkpt lat="44.75024" lon="5.17543">
        <ele>493.8</ele>
        <time>2022-11-17T11:21:12Z</time>
      </trkpt>
      <trkpt lat="44.75026" lon="5.17532">
        <ele>495.1</ele>
        <time>2022-11-17T11:21:12Z</time>
      </trkpt>
      <trkpt lat="44.75024" lon="5.17522">
        <ele>495.4</ele>
        <time>2022-11-17T11:21:12Z</time>
      </trkpt>
      <trkpt lat="44.74991" lon="5.17504">
        <ele>488.1</ele>
        <time>2022-11-17T11:21:12Z</time>
      </trkpt>
      <trkpt lat="44.74984" lon="5.17492">
        <ele>486.7</ele>
        <time>2022-11-17T11:21:12Z</time>
      </trkpt>
      <trkpt lat="44.74984" lon="5.17476">
        <ele>487.1</ele>
        <time>2022-11-17T11:21:12Z</time>
      </trkpt>
      <trkpt lat="44.75017" lon="5.174">
        <ele>495.8</ele>
        <time>2022-11-17T11:21:12Z</time>
      </trkpt>
      <trkpt lat="44.75018" lon="5.17389">
        <ele>496.9</ele>
        <time>2022-11-17T11:21:12Z</time>
      </trkpt>
      <trkpt lat="44.75013" lon="5.17378">
        <ele>496.6</ele>
        <time>2022-11-17T11:21:12Z</time>
      </trkpt>
      <trkpt lat="44.75002" lon="5.17377">
        <ele>493.7</ele>
        <time>2022-11-17T11:21:12Z</time>
      </trkpt>
      <trkpt lat="44.74993" lon="5.17384">
        <ele>491.1</ele>
        <time>2022-11-17T11:21:12Z</time>
      </trkpt>
      <trkpt lat="44.74983" lon="5.17387">
        <ele>489.5</ele>
        <time>2022-11-17T11:21:12Z</time>
      </trkpt>
      <trkpt lat="44.74975" lon="5.17386">
        <ele>488.8</ele>
        <time>2022-11-17T11:21:12Z</time>
      </trkpt>
      <trkpt lat="44.74966" lon="5.17382">
        <ele>488.8</ele>
        <time>2022-11-17T11:21:12Z</time>
      </trkpt>
      <trkpt lat="44.74957" lon="5.17375">
        <ele>489.5</ele>
        <time>2022-11-17T11:21:12Z</time>
      </trkpt>
      <trkpt lat="44.74934" lon="5.17365">
        <ele>488</ele>
        <time>2022-11-17T11:21:12Z</time>
      </trkpt>
      <trkpt lat="44.74924" lon="5.17354">
        <ele>488.1</ele>
        <time>2022-11-17T11:21:12Z</time>
      </trkpt>
      <trkpt lat="44.74888" lon="5.17259">
        <ele>493.1</ele>
        <time>2022-11-17T11:21:12Z</time>
      </trkpt>
      <trkpt lat="44.74906" lon="5.17206">
        <ele>498.2</ele>
        <time>2022-11-17T11:21:12Z</time>
      </trkpt>
      <trkpt lat="44.74941" lon="5.17175">
        <ele>509.1</ele>
        <time>2022-11-17T11:21:12Z</time>
      </trkpt>
      <trkpt lat="44.74943" lon="5.17157">
        <ele>509.6</ele>
        <time>2022-11-17T11:21:12Z</time>
      </trkpt>
      <trkpt lat="44.74898" lon="5.17114">
        <ele>497.8</ele>
        <time>2022-11-17T11:21:12Z</time>
      </trkpt>
      <trkpt lat="44.74894" lon="5.171">
        <ele>497</ele>
        <time>2022-11-17T11:21:12Z</time>
      </trkpt>
      <trkpt lat="44.74902" lon="5.1704">
        <ele>501</ele>
        <time>2022-11-17T11:21:12Z</time>
      </trkpt>
      <trkpt lat="44.74896" lon="5.16992">
        <ele>496.5</ele>
        <time>2022-11-17T11:21:12Z</time>
      </trkpt>
      <trkpt lat="44.74947" lon="5.16918">
        <ele>493.5</ele>
        <time>2022-11-17T11:21:12Z</time>
      </trkpt>
      <trkpt lat="44.74954" lon="5.16913">
        <ele>492.5</ele>
        <time>2022-11-17T11:21:12Z</time>
      </trkpt>
      <trkpt lat="44.74962" lon="5.1691">
        <ele>492.1</ele>
        <time>2022-11-17T11:21:12Z</time>
      </trkpt>
      <trkpt lat="44.7497" lon="5.16911">
        <ele>492.6</ele>
        <time>2022-11-17T11:21:12Z</time>
      </trkpt>
      <trkpt lat="44.74986" lon="5.16923">
        <ele>495.9</ele>
        <time>2022-11-17T11:21:12Z</time>
      </trkpt>
      <trkpt lat="44.74995" lon="5.16925">
        <ele>496.7</ele>
        <time>2022-11-17T11:21:12Z</time>
      </trkpt>
      <trkpt lat="44.75002" lon="5.16925">
        <ele>497</ele>
        <time>2022-11-17T11:21:12Z</time>
      </trkpt>
      <trkpt lat="44.75009" lon="5.16917">
        <ele>496.5</ele>
        <time>2022-11-17T11:21:12Z</time>
      </trkpt>
      <trkpt lat="44.75016" lon="5.16891">
        <ele>494</ele>
        <time>2022-11-17T11:21:12Z</time>
      </trkpt>
      <trkpt lat="44.7503" lon="5.16879">
        <ele>494.6</ele>
        <time>2022-11-17T11:21:12Z</time>
      </trkpt>
      <trkpt lat="44.75077" lon="5.16881">
        <ele>502.4</ele>
        <time>2022-11-17T11:21:12Z</time>
      </trkpt>
      <trkpt lat="44.7511" lon="5.16861">
        <ele>505.6</ele>
        <time>2022-11-17T11:21:12Z</time>
      </trkpt>
      <trkpt lat="44.75144" lon="5.1678">
        <ele>506.5</ele>
        <time>2022-11-17T11:21:12Z</time>
      </trkpt>
      <trkpt lat="44.75147" lon="5.16761">
        <ele>508</ele>
        <time>2022-11-17T11:21:12Z</time>
      </trkpt>
      <trkpt lat="44.75143" lon="5.16738">
        <ele>510.5</ele>
        <time>2022-11-17T11:21:12Z</time>
      </trkpt>
      <trkpt lat="44.75079" lon="5.16613">
        <ele>517.5</ele>
        <time>2022-11-17T11:21:12Z</time>
      </trkpt>
      <trkpt lat="44.75024" lon="5.16587">
        <ele>514.6</ele>
        <time>2022-11-17T11:21:12Z</time>
      </trkpt>
      <trkpt lat="44.74994" lon="5.16547">
        <ele>518.4</ele>
        <time>2022-11-17T11:21:12Z</time>
      </trkpt>
      <trkpt lat="44.7496" lon="5.16519">
        <ele>517.4</ele>
        <time>2022-11-17T11:21:12Z</time>
      </trkpt>
      <trkpt lat="44.74955" lon="5.1651">
        <ele>518</ele>
        <time>2022-11-17T11:21:12Z</time>
      </trkpt>
      <trkpt lat="44.7489" lon="5.16432">
        <ele>514.6</ele>
        <time>2022-11-17T11:21:12Z</time>
      </trkpt>
      <trkpt lat="44.74871" lon="5.16427">
        <ele>514.8</ele>
        <time>2022-11-17T11:21:12Z</time>
      </trkpt>
      <trkpt lat="44.74856" lon="5.16395">
        <ele>512.5</ele>
        <time>2022-11-17T11:21:12Z</time>
      </trkpt>
      <trkpt lat="44.74854" lon="5.16382">
        <ele>511.1</ele>
        <time>2022-11-17T11:21:12Z</time>
      </trkpt>
      <trkpt lat="44.74824" lon="5.16313">
        <ele>507.8</ele>
        <time>2022-11-17T11:21:12Z</time>
      </trkpt>
      <trkpt lat="44.74813" lon="5.16311">
        <ele>508.6</ele>
        <time>2022-11-17T11:21:12Z</time>
      </trkpt>
      <trkpt lat="44.74789" lon="5.16327">
        <ele>511.2</ele>
        <time>2022-11-17T11:21:12Z</time>
      </trkpt>
      <trkpt lat="44.7478" lon="5.16324">
        <ele>509.6</ele>
        <time>2022-11-17T11:21:12Z</time>
      </trkpt>
      <trkpt lat="44.74723" lon="5.16215">
        <ele>493.2</ele>
        <time>2022-11-17T11:21:12Z</time>
      </trkpt>
      <trkpt lat="44.74716" lon="5.16208">
        <ele>492.5</ele>
        <time>2022-11-17T11:21:12Z</time>
      </trkpt>
      <trkpt lat="44.74704" lon="5.16201">
        <ele>493.4</ele>
        <time>2022-11-17T11:21:12Z</time>
      </trkpt>
      <trkpt lat="44.7469" lon="5.16165">
        <ele>485</ele>
        <time>2022-11-17T11:21:12Z</time>
      </trkpt>
      <trkpt lat="44.74684" lon="5.16158">
        <ele>483.3</ele>
        <time>2022-11-17T11:21:12Z</time>
      </trkpt>
      <trkpt lat="44.74633" lon="5.16158">
        <ele>488</ele>
        <time>2022-11-17T11:21:12Z</time>
      </trkpt>
      <trkpt lat="44.74627" lon="5.16152">
        <ele>487.5</ele>
        <time>2022-11-17T11:21:12Z</time>
      </trkpt>
      <trkpt lat="44.74635" lon="5.16087">
        <ele>475.6</ele>
        <time>2022-11-17T11:21:12Z</time>
      </trkpt>
      <trkpt lat="44.74631" lon="5.16056">
        <ele>473.3</ele>
        <time>2022-11-17T11:21:12Z</time>
      </trkpt>
      <trkpt lat="44.7464" lon="5.16022">
        <ele>466.6</ele>
        <time>2022-11-17T11:21:12Z</time>
      </trkpt>
      <trkpt lat="44.74632" lon="5.16005">
        <ele>466.5</ele>
        <time>2022-11-17T11:21:12Z</time>
      </trkpt>
      <trkpt lat="44.74634" lon="5.15988">
        <ele>463.5</ele>
        <time>2022-11-17T11:21:12Z</time>
      </trkpt>
      <trkpt lat="44.74631" lon="5.15977">
        <ele>462.3</ele>
        <time>2022-11-17T11:21:12Z</time>
      </trkpt>
      <trkpt lat="44.74617" lon="5.15963">
        <ele>464.9</ele>
        <time>2022-11-17T11:21:12Z</time>
      </trkpt>
      <trkpt lat="44.74631" lon="5.15925">
        <ele>457.4</ele>
        <time>2022-11-17T11:21:12Z</time>
      </trkpt>
      <trkpt lat="44.7463" lon="5.15907">
        <ele>456.7</ele>
        <time>2022-11-17T11:21:12Z</time>
      </trkpt>
      <trkpt lat="44.74626" lon="5.15892">
        <ele>456.6</ele>
        <time>2022-11-17T11:21:12Z</time>
      </trkpt>
      <trkpt lat="44.74625" lon="5.15874">
        <ele>455.1</ele>
        <time>2022-11-17T11:21:12Z</time>
      </trkpt>
      <trkpt lat="44.74629" lon="5.15861">
        <ele>453.4</ele>
        <time>2022-11-17T11:21:12Z</time>
      </trkpt>
      <trkpt lat="44.74629" lon="5.15839">
        <ele>450.3</ele>
        <time>2022-11-17T11:21:12Z</time>
      </trkpt>
      <trkpt lat="44.74627" lon="5.1583">
        <ele>449</ele>
        <time>2022-11-17T11:21:12Z</time>
      </trkpt>
      <trkpt lat="44.74622" lon="5.1582">
        <ele>447.7</ele>
        <time>2022-11-17T11:21:12Z</time>
      </trkpt>
      <trkpt lat="44.74613" lon="5.15813">
        <ele>447.3</ele>
        <time>2022-11-17T11:21:12Z</time>
      </trkpt>
      <trkpt lat="44.74572" lon="5.15806">
        <ele>450.7</ele>
        <time>2022-11-17T11:21:12Z</time>
      </trkpt>
      <trkpt lat="44.7459" lon="5.15751">
        <ele>439.4</ele>
        <time>2022-11-17T11:21:12Z</time>
      </trkpt>
      <trkpt lat="44.74601" lon="5.15665">
        <ele>437.6</ele>
        <time>2022-11-17T11:21:12Z</time>
      </trkpt>
      <trkpt lat="44.746" lon="5.15651">
        <ele>437.7</ele>
        <time>2022-11-17T11:21:12Z</time>
      </trkpt>
      <trkpt lat="44.74594" lon="5.15639">
        <ele>440</ele>
        <time>2022-11-17T11:21:12Z</time>
      </trkpt>
      <trkpt lat="44.74591" lon="5.15627">
        <ele>441.6</ele>
        <time>2022-11-17T11:21:12Z</time>
      </trkpt>
      <trkpt lat="44.74595" lon="5.15614">
        <ele>439.8</ele>
        <time>2022-11-17T11:21:12Z</time>
      </trkpt>
      <trkpt lat="44.74596" lon="5.15573">
        <ele>440.3</ele>
        <time>2022-11-17T11:21:12Z</time>
      </trkpt>
      <trkpt lat="44.74602" lon="5.15561">
        <ele>438.9</ele>
        <time>2022-11-17T11:21:12Z</time>
      </trkpt>
      <trkpt lat="44.74625" lon="5.1537">
        <ele>441.1</ele>
        <time>2022-11-17T11:21:12Z</time>
      </trkpt>
      <trkpt lat="44.74651" lon="5.15261">
        <ele>435.4</ele>
        <time>2022-11-17T11:21:12Z</time>
      </trkpt>
      <trkpt lat="44.74652" lon="5.15186">
        <ele>430.4</ele>
        <time>2022-11-17T11:21:12Z</time>
      </trkpt>
      <trkpt lat="44.74626" lon="5.15166">
        <ele>427</ele>
        <time>2022-11-17T11:21:12Z</time>
      </trkpt>
      <trkpt lat="44.74629" lon="5.1513">
        <ele>416.9</ele>
        <time>2022-11-17T11:21:12Z</time>
      </trkpt>
      <trkpt lat="44.74626" lon="5.15093">
        <ele>403.7</ele>
        <time>2022-11-17T11:21:12Z</time>
      </trkpt>
      <trkpt lat="44.746" lon="5.15061">
        <ele>389.2</ele>
        <time>2022-11-17T11:21:12Z</time>
      </trkpt>
      <trkpt lat="44.74574" lon="5.15063">
        <ele>389.4</ele>
        <time>2022-11-17T11:21:12Z</time>
      </trkpt>
      <trkpt lat="44.74497" lon="5.1504">
        <ele>391</ele>
        <time>2022-11-17T11:21:12Z</time>
      </trkpt>
      <trkpt lat="44.74465" lon="5.15046">
        <ele>394.1</ele>
        <time>2022-11-17T11:21:12Z</time>
      </trkpt>
      <trkpt lat="44.7447" lon="5.15037">
        <ele>393</ele>
        <time>2022-11-17T11:21:12Z</time>
      </trkpt>
      <trkpt lat="44.74497" lon="5.14919">
        <ele>395</ele>
        <time>2022-11-17T11:21:12Z</time>
      </trkpt>
      <trkpt lat="44.74499" lon="5.14852">
        <ele>392.4</ele>
        <time>2022-11-17T11:21:12Z</time>
      </trkpt>
      <trkpt lat="44.74579" lon="5.14707">
        <ele>381.4</ele>
        <time>2022-11-17T11:21:12Z</time>
      </trkpt>
      <trkpt lat="44.74602" lon="5.14643">
        <ele>378.5</ele>
        <time>2022-11-17T11:21:12Z</time>
      </trkpt>
      <trkpt lat="44.74511" lon="5.14591">
        <ele>375.7</ele>
        <time>2022-11-17T11:21:12Z</time>
      </trkpt>
      <trkpt lat="44.74475" lon="5.14587">
        <ele>373.3</ele>
        <time>2022-11-17T11:21:12Z</time>
      </trkpt>
      <trkpt lat="44.7447" lon="5.14579">
        <ele>372.8</ele>
        <time>2022-11-17T11:21:12Z</time>
      </trkpt>
      <trkpt lat="44.7447" lon="5.14536">
        <ele>371.9</ele>
        <time>2022-11-17T11:21:12Z</time>
      </trkpt>
      <trkpt lat="44.74478" lon="5.14517">
        <ele>371.7</ele>
        <time>2022-11-17T11:21:12Z</time>
      </trkpt>
      <trkpt lat="44.74519" lon="5.14463">
        <ele>367.6</ele>
        <time>2022-11-17T11:21:12Z</time>
      </trkpt>
      <trkpt lat="44.74547" lon="5.14442">
        <ele>366.3</ele>
        <time>2022-11-17T11:21:12Z</time>
      </trkpt>
      <trkpt lat="44.7452" lon="5.14438">
        <ele>364.6</ele>
        <time>2022-11-17T11:21:12Z</time>
      </trkpt>
      <trkpt lat="44.74452" lon="5.14403">
        <ele>358.4</ele>
        <time>2022-11-17T11:21:12Z</time>
      </trkpt>
      <trkpt lat="44.74425" lon="5.14402">
        <ele>356.1</ele>
        <time>2022-11-17T11:21:12Z</time>
      </trkpt>
      <trkpt lat="44.74367" lon="5.14421">
        <ele>354.4</ele>
        <time>2022-11-17T11:21:12Z</time>
      </trkpt>
      <trkpt lat="44.74263" lon="5.14424">
        <ele>369.2</ele>
        <time>2022-11-17T11:21:12Z</time>
      </trkpt>
      <trkpt lat="44.74184" lon="5.1444">
        <ele>381.6</ele>
        <time>2022-11-17T11:21:12Z</time>
      </trkpt>
      <trkpt lat="44.74173" lon="5.14449">
        <ele>382.8</ele>
        <time>2022-11-17T11:21:12Z</time>
      </trkpt>
      <trkpt lat="44.74167" lon="5.14458">
        <ele>384</ele>
        <time>2022-11-17T11:21:12Z</time>
      </trkpt>
      <trkpt lat="44.74162" lon="5.14469">
        <ele>384.7</ele>
        <time>2022-11-17T11:21:12Z</time>
      </trkpt>
      <trkpt lat="44.74099" lon="5.14508">
        <ele>386.8</ele>
        <time>2022-11-17T11:21:12Z</time>
      </trkpt>
      <trkpt lat="44.74074" lon="5.14508">
        <ele>384.3</ele>
        <time>2022-11-17T11:21:12Z</time>
      </trkpt>
      <trkpt lat="44.74056" lon="5.14503">
        <ele>381.4</ele>
        <time>2022-11-17T11:21:12Z</time>
      </trkpt>
      <trkpt lat="44.74024" lon="5.14582">
        <ele>386.6</ele>
        <time>2022-11-17T11:21:12Z</time>
      </trkpt>
      <trkpt lat="44.74012" lon="5.146">
        <ele>387</ele>
        <time>2022-11-17T11:21:12Z</time>
      </trkpt>
      <trkpt lat="44.74002" lon="5.14608">
        <ele>386.1</ele>
        <time>2022-11-17T11:21:12Z</time>
      </trkpt>
      <trkpt lat="44.73981" lon="5.14612">
        <ele>386.7</ele>
        <time>2022-11-17T11:21:12Z</time>
      </trkpt>
      <trkpt lat="44.73955" lon="5.14606">
        <ele>390.8</ele>
        <time>2022-11-17T11:21:12Z</time>
      </trkpt>
      <trkpt lat="44.73948" lon="5.14592">
        <ele>392.3</ele>
        <time>2022-11-17T11:21:12Z</time>
      </trkpt>
      <trkpt lat="44.7395" lon="5.14552">
        <ele>390.7</ele>
        <time>2022-11-17T11:21:12Z</time>
      </trkpt>
      <trkpt lat="44.73948" lon="5.1454">
        <ele>389.8</ele>
        <time>2022-11-17T11:21:12Z</time>
      </trkpt>
      <trkpt lat="44.73932" lon="5.1451">
        <ele>389.1</ele>
        <time>2022-11-17T11:21:12Z</time>
      </trkpt>
      <trkpt lat="44.73924" lon="5.14504">
        <ele>389.9</ele>
        <time>2022-11-17T11:21:12Z</time>
      </trkpt>
      <trkpt lat="44.73889" lon="5.14495">
        <ele>397</ele>
        <time>2022-11-17T11:21:12Z</time>
      </trkpt>
      <trkpt lat="44.73853" lon="5.14469">
        <ele>397.7</ele>
        <time>2022-11-17T11:21:12Z</time>
      </trkpt>
      <trkpt lat="44.73835" lon="5.14466">
        <ele>398</ele>
        <time>2022-11-17T11:21:12Z</time>
      </trkpt>
      <trkpt lat="44.73823" lon="5.14476">
        <ele>398.8</ele>
        <time>2022-11-17T11:21:12Z</time>
      </trkpt>
      <trkpt lat="44.7381" lon="5.14513">
        <ele>405.4</ele>
        <time>2022-11-17T11:21:12Z</time>
      </trkpt>
      <trkpt lat="44.73797" lon="5.14532">
        <ele>406.6</ele>
        <time>2022-11-17T11:21:12Z</time>
      </trkpt>
      <trkpt lat="44.7376" lon="5.14567">
        <ele>404</ele>
        <time>2022-11-17T11:21:12Z</time>
      </trkpt>
      <trkpt lat="44.73682" lon="5.14723">
        <ele>410.8</ele>
        <time>2022-11-17T11:21:12Z</time>
      </trkpt>
      <trkpt lat="44.73676" lon="5.1473">
        <ele>411</ele>
        <time>2022-11-17T11:21:12Z</time>
      </trkpt>
      <trkpt lat="44.73567" lon="5.14769">
        <ele>416.7</ele>
        <time>2022-11-17T11:21:12Z</time>
      </trkpt>
      <trkpt lat="44.73585" lon="5.14749">
        <ele>420.9</ele>
        <time>2022-11-17T11:21:12Z</time>
      </trkpt>
      <trkpt lat="44.73581" lon="5.14729">
        <ele>421.6</ele>
        <time>2022-11-17T11:21:12Z</time>
      </trkpt>
      <trkpt lat="44.73573" lon="5.14706">
        <ele>422.1</ele>
        <time>2022-11-17T11:21:12Z</time>
      </trkpt>
      <trkpt lat="44.73551" lon="5.14607">
        <ele>425.9</ele>
        <time>2022-11-17T11:21:12Z</time>
      </trkpt>
      <trkpt lat="44.7347" lon="5.14445">
        <ele>439.5</ele>
        <time>2022-11-17T11:21:12Z</time>
      </trkpt>
      <trkpt lat="44.73362" lon="5.14346">
        <ele>431.7</ele>
        <time>2022-11-17T11:21:12Z</time>
      </trkpt>
      <trkpt lat="44.73356" lon="5.14333">
        <ele>432.6</ele>
        <time>2022-11-17T11:21:12Z</time>
      </trkpt>
      <trkpt lat="44.73356" lon="5.14333">
        <ele>432.6</ele>
        <time>2022-11-17T11:21:12Z</time>
      </trkpt>
      <trkpt lat="44.73336" lon="5.14289">
        <ele>436.6</ele>
        <time>2022-11-17T11:21:12Z</time>
      </trkpt>
      <trkpt lat="44.73334" lon="5.14269">
        <ele>438.5</ele>
        <time>2022-11-17T11:21:12Z</time>
      </trkpt>
      <trkpt lat="44.73347" lon="5.1423">
        <ele>436.5</ele>
        <time>2022-11-17T11:21:12Z</time>
      </trkpt>
      <trkpt lat="44.73347" lon="5.14073">
        <ele>435.3</ele>
        <time>2022-11-17T11:21:12Z</time>
      </trkpt>
      <trkpt lat="44.73311" lon="5.13937">
        <ele>440.3</ele>
        <time>2022-11-17T11:21:12Z</time>
      </trkpt>
      <trkpt lat="44.73252" lon="5.13844">
        <ele>435.8</ele>
        <time>2022-11-17T11:21:12Z</time>
      </trkpt>
      <trkpt lat="44.73217" lon="5.13811">
        <ele>431.5</ele>
        <time>2022-11-17T11:21:12Z</time>
      </trkpt>
      <trkpt lat="44.73197" lon="5.13802">
        <ele>432</ele>
        <time>2022-11-17T11:21:12Z</time>
      </trkpt>
      <trkpt lat="44.73173" lon="5.13774">
        <ele>431.1</ele>
        <time>2022-11-17T11:21:12Z</time>
      </trkpt>
      <trkpt lat="44.73158" lon="5.13741">
        <ele>432.1</ele>
        <time>2022-11-17T11:21:12Z</time>
      </trkpt>
      <trkpt lat="44.7314" lon="5.1362">
        <ele>432.2</ele>
        <time>2022-11-17T11:21:12Z</time>
      </trkpt>
      <trkpt lat="44.731" lon="5.13545">
        <ele>429.7</ele>
        <time>2022-11-17T11:21:12Z</time>
      </trkpt>
      <trkpt lat="44.73085" lon="5.13528">
        <ele>429.8</ele>
        <time>2022-11-17T11:21:12Z</time>
      </trkpt>
      <trkpt lat="44.73025" lon="5.13502">
        <ele>430.8</ele>
        <time>2022-11-17T11:21:12Z</time>
      </trkpt>
      <trkpt lat="44.73016" lon="5.13504">
        <ele>432</ele>
        <time>2022-11-17T11:21:12Z</time>
      </trkpt>
      <trkpt lat="44.73008" lon="5.13496">
        <ele>431.6</ele>
        <time>2022-11-17T11:21:12Z</time>
      </trkpt>
      <trkpt lat="44.72999" lon="5.1348">
        <ele>430.2</ele>
        <time>2022-11-17T11:21:12Z</time>
      </trkpt>
      <trkpt lat="44.72947" lon="5.13436">
        <ele>429</ele>
        <time>2022-11-17T11:21:12Z</time>
      </trkpt>
      <trkpt lat="44.7292" lon="5.13425">
        <ele>428.8</ele>
        <time>2022-11-17T11:21:12Z</time>
      </trkpt>
      <trkpt lat="44.72846" lon="5.13324">
        <ele>426</ele>
        <time>2022-11-17T11:21:12Z</time>
      </trkpt>
      <trkpt lat="44.72837" lon="5.13319">
        <ele>426.7</ele>
        <time>2022-11-17T11:21:12Z</time>
      </trkpt>
      <trkpt lat="44.72746" lon="5.13176">
        <ele>428.4</ele>
        <time>2022-11-17T11:21:12Z</time>
      </trkpt>
      <trkpt lat="44.72717" lon="5.13157">
        <ele>427.4</ele>
        <time>2022-11-17T11:21:12Z</time>
      </trkpt>
      <trkpt lat="44.72536" lon="5.131">
        <ele>427</ele>
        <time>2022-11-17T11:21:12Z</time>
      </trkpt>
      <trkpt lat="44.72553" lon="5.13104">
        <ele>427</ele>
        <time>2022-11-17T11:21:12Z</time>
      </trkpt>
      <trkpt lat="44.72584" lon="5.13">
        <ele>424</ele>
        <time>2022-11-17T11:21:12Z</time>
      </trkpt>
      <trkpt lat="44.72596" lon="5.12974">
        <ele>420.7</ele>
        <time>2022-11-17T11:21:12Z</time>
      </trkpt>
      <trkpt lat="44.72601" lon="5.12957">
        <ele>419.7</ele>
        <time>2022-11-17T11:21:12Z</time>
      </trkpt>
      <trkpt lat="44.7261" lon="5.12943">
        <ele>419</ele>
        <time>2022-11-17T11:21:12Z</time>
      </trkpt>
      <trkpt lat="44.72611" lon="5.12931">
        <ele>419</ele>
        <time>2022-11-17T11:21:12Z</time>
      </trkpt>
      <trkpt lat="44.72604" lon="5.12893">
        <ele>418</ele>
        <time>2022-11-17T11:21:12Z</time>
      </trkpt>
      <trkpt lat="44.72587" lon="5.12851">
        <ele>415.2</ele>
        <time>2022-11-17T11:21:12Z</time>
      </trkpt>
      <trkpt lat="44.72583" lon="5.12823">
        <ele>414.2</ele>
        <time>2022-11-17T11:21:12Z</time>
      </trkpt>
      <trkpt lat="44.72583" lon="5.1281">
        <ele>414.7</ele>
        <time>2022-11-17T11:21:12Z</time>
      </trkpt>
      <trkpt lat="44.72557" lon="5.12735">
        <ele>410.9</ele>
        <time>2022-11-17T11:21:12Z</time>
      </trkpt>
      <trkpt lat="44.72519" lon="5.12667">
        <ele>407</ele>
        <time>2022-11-17T11:21:12Z</time>
      </trkpt>
      <trkpt lat="44.72492" lon="5.12566">
        <ele>406.1</ele>
        <time>2022-11-17T11:21:12Z</time>
      </trkpt>
      <trkpt lat="44.72457" lon="5.12493">
        <ele>406.8</ele>
        <time>2022-11-17T11:21:12Z</time>
      </trkpt>
      <trkpt lat="44.7242" lon="5.12385">
        <ele>406</ele>
        <time>2022-11-17T11:21:12Z</time>
      </trkpt>
      <trkpt lat="44.72368" lon="5.12314">
        <ele>401.9</ele>
        <time>2022-11-17T11:21:12Z</time>
      </trkpt>
      <trkpt lat="44.72326" lon="5.12293">
        <ele>399.3</ele>
        <time>2022-11-17T11:21:12Z</time>
      </trkpt>
      <trkpt lat="44.72317" lon="5.12285">
        <ele>398.7</ele>
        <time>2022-11-17T11:21:12Z</time>
      </trkpt>
      <trkpt lat="44.72303" lon="5.12263">
        <ele>395.8</ele>
        <time>2022-11-17T11:21:12Z</time>
      </trkpt>
      <trkpt lat="44.72235" lon="5.12178">
        <ele>385.8</ele>
        <time>2022-11-17T11:21:12Z</time>
      </trkpt>
      <trkpt lat="44.72221" lon="5.12167">
        <ele>387.6</ele>
        <time>2022-11-17T11:21:12Z</time>
      </trkpt>
      <trkpt lat="44.72208" lon="5.12144">
        <ele>387.6</ele>
        <time>2022-11-17T11:21:12Z</time>
      </trkpt>
      <trkpt lat="44.72204" lon="5.12124">
        <ele>387.5</ele>
        <time>2022-11-17T11:21:12Z</time>
      </trkpt>
      <trkpt lat="44.72204" lon="5.12113">
        <ele>386.9</ele>
        <time>2022-11-17T11:21:12Z</time>
      </trkpt>
      <trkpt lat="44.72209" lon="5.12093">
        <ele>386</ele>
        <time>2022-11-17T11:21:12Z</time>
      </trkpt>
      <trkpt lat="44.72235" lon="5.12045">
        <ele>381.3</ele>
        <time>2022-11-17T11:21:12Z</time>
      </trkpt>
      <trkpt lat="44.72265" lon="5.12009">
        <ele>372.2</ele>
        <time>2022-11-17T11:21:12Z</time>
      </trkpt>
      <trkpt lat="44.72269" lon="5.11998">
        <ele>370.8</ele>
        <time>2022-11-17T11:21:12Z</time>
      </trkpt>
      <trkpt lat="44.72269" lon="5.11983">
        <ele>370.4</ele>
        <time>2022-11-17T11:21:12Z</time>
      </trkpt>
      <trkpt lat="44.72257" lon="5.11955">
        <ele>375.6</ele>
        <time>2022-11-17T11:21:12Z</time>
      </trkpt>
      <trkpt lat="44.72261" lon="5.11885">
        <ele>377</ele>
        <time>2022-11-17T11:21:12Z</time>
      </trkpt>
      <trkpt lat="44.72293" lon="5.11741">
        <ele>370.7</ele>
        <time>2022-11-17T11:21:12Z</time>
      </trkpt>
      <trkpt lat="44.72292" lon="5.11725">
        <ele>371.3</ele>
        <time>2022-11-17T11:21:12Z</time>
      </trkpt>
      <trkpt lat="44.72289" lon="5.11714">
        <ele>372.1</ele>
        <time>2022-11-17T11:21:12Z</time>
      </trkpt>
      <trkpt lat="44.72289" lon="5.11702">
        <ele>371.8</ele>
        <time>2022-11-17T11:21:12Z</time>
      </trkpt>
      <trkpt lat="44.72281" lon="5.11681">
        <ele>372.7</ele>
        <time>2022-11-17T11:21:12Z</time>
      </trkpt>
      <trkpt lat="44.72269" lon="5.1167">
        <ele>374</ele>
        <time>2022-11-17T11:21:12Z</time>
      </trkpt>
      <trkpt lat="44.72234" lon="5.11663">
        <ele>377.9</ele>
        <time>2022-11-17T11:21:12Z</time>
      </trkpt>
      <trkpt lat="44.72227" lon="5.11659">
        <ele>377.7</ele>
        <time>2022-11-17T11:21:12Z</time>
      </trkpt>
      <trkpt lat="44.72211" lon="5.1166">
        <ele>378.7</ele>
        <time>2022-11-17T11:21:12Z</time>
      </trkpt>
      <trkpt lat="44.72201" lon="5.11651">
        <ele>376.7</ele>
        <time>2022-11-17T11:21:12Z</time>
      </trkpt>
      <trkpt lat="44.72192" lon="5.11639">
        <ele>374</ele>
        <time>2022-11-17T11:21:12Z</time>
      </trkpt>
      <trkpt lat="44.72182" lon="5.11632">
        <ele>372.3</ele>
        <time>2022-11-17T11:21:12Z</time>
      </trkpt>
      <trkpt lat="44.72175" lon="5.11632">
        <ele>372.3</ele>
        <time>2022-11-17T11:21:12Z</time>
      </trkpt>
      <trkpt lat="44.72159" lon="5.11626">
        <ele>370.6</ele>
        <time>2022-11-17T11:21:12Z</time>
      </trkpt>
      <trkpt lat="44.72145" lon="5.11628">
        <ele>370.4</ele>
        <time>2022-11-17T11:21:12Z</time>
      </trkpt>
      <trkpt lat="44.72106" lon="5.11608">
        <ele>365.1</ele>
        <time>2022-11-17T11:21:12Z</time>
      </trkpt>
      <trkpt lat="44.7203" lon="5.11599">
        <ele>363.9</ele>
        <time>2022-11-17T11:21:12Z</time>
      </trkpt>
      <trkpt lat="44.72013" lon="5.11585">
        <ele>360.4</ele>
        <time>2022-11-17T11:21:12Z</time>
      </trkpt>
      <trkpt lat="44.71949" lon="5.11559">
        <ele>353.1</ele>
        <time>2022-11-17T11:21:12Z</time>
      </trkpt>
      <trkpt lat="44.71841" lon="5.11534">
        <ele>345.1</ele>
        <time>2022-11-17T11:21:12Z</time>
      </trkpt>
      <trkpt lat="44.71787" lon="5.1148">
        <ele>335.1</ele>
        <time>2022-11-17T11:21:12Z</time>
      </trkpt>
      <trkpt lat="44.71775" lon="5.11479">
        <ele>335.4</ele>
        <time>2022-11-17T11:21:12Z</time>
      </trkpt>
      <trkpt lat="44.71767" lon="5.11474">
        <ele>335.1</ele>
        <time>2022-11-17T11:21:12Z</time>
      </trkpt>
      <trkpt lat="44.7176" lon="5.11466">
        <ele>334.6</ele>
        <time>2022-11-17T11:21:12Z</time>
      </trkpt>
      <trkpt lat="44.71756" lon="5.11458">
        <ele>333.9</ele>
        <time>2022-11-17T11:21:12Z</time>
      </trkpt>
      <trkpt lat="44.71749" lon="5.11452">
        <ele>333.9</ele>
        <time>2022-11-17T11:21:12Z</time>
      </trkpt>
      <trkpt lat="44.71739" lon="5.1145">
        <ele>334.4</ele>
        <time>2022-11-17T11:21:12Z</time>
      </trkpt>
      <trkpt lat="44.71721" lon="5.11453">
        <ele>335.9</ele>
        <time>2022-11-17T11:21:12Z</time>
      </trkpt>
      <trkpt lat="44.7171" lon="5.11451">
        <ele>335.7</ele>
        <time>2022-11-17T11:21:12Z</time>
      </trkpt>
      <trkpt lat="44.71707" lon="5.11385">
        <ele>333</ele>
        <time>2022-11-17T11:21:12Z</time>
      </trkpt>
      <trkpt lat="44.7168" lon="5.11315">
        <ele>333</ele>
        <time>2022-11-17T11:21:12Z</time>
      </trkpt>
      <trkpt lat="44.71642" lon="5.1125">
        <ele>333.6</ele>
        <time>2022-11-17T11:21:12Z</time>
      </trkpt>
      <trkpt lat="44.71637" lon="5.11223">
        <ele>331.4</ele>
        <time>2022-11-17T11:21:12Z</time>
      </trkpt>
      <trkpt lat="44.71617" lon="5.11187">
        <ele>332.4</ele>
        <time>2022-11-17T11:21:12Z</time>
      </trkpt>
      <trkpt lat="44.71604" lon="5.11174">
        <ele>331.8</ele>
        <time>2022-11-17T11:21:12Z</time>
      </trkpt>
      <trkpt lat="44.71533" lon="5.11169">
        <ele>328.6</ele>
        <time>2022-11-17T11:21:12Z</time>
      </trkpt>
      <trkpt lat="44.71484" lon="5.11185">
        <ele>322.5</ele>
        <time>2022-11-17T11:21:12Z</time>
      </trkpt>
      <trkpt lat="44.71472" lon="5.11184">
        <ele>320.6</ele>
        <time>2022-11-17T11:21:12Z</time>
      </trkpt>
      <trkpt lat="44.71467" lon="5.11169">
        <ele>319.2</ele>
        <time>2022-11-17T11:21:12Z</time>
      </trkpt>
      <trkpt lat="44.71469" lon="5.11146">
        <ele>318.1</ele>
        <time>2022-11-17T11:21:12Z</time>
      </trkpt>
      <trkpt lat="44.71463" lon="5.11129">
        <ele>316</ele>
        <time>2022-11-17T11:21:12Z</time>
      </trkpt>
      <trkpt lat="44.71438" lon="5.11087">
        <ele>310.1</ele>
        <time>2022-11-17T11:21:12Z</time>
      </trkpt>
      <trkpt lat="44.71431" lon="5.11062">
        <ele>308.4</ele>
        <time>2022-11-17T11:21:12Z</time>
      </trkpt>
      <trkpt lat="44.71425" lon="5.11055">
        <ele>308</ele>
        <time>2022-11-17T11:21:12Z</time>
      </trkpt>
      <trkpt lat="44.71408" lon="5.11045">
        <ele>308.1</ele>
        <time>2022-11-17T11:21:12Z</time>
      </trkpt>
      <trkpt lat="44.71412" lon="5.11034">
        <ele>308.1</ele>
        <time>2022-11-17T11:21:12Z</time>
      </trkpt>
      <trkpt lat="44.71404" lon="5.11026">
        <ele>308.5</ele>
        <time>2022-11-17T11:21:12Z</time>
      </trkpt>
      <trkpt lat="44.71333" lon="5.10928">
        <ele>320.7</ele>
        <time>2022-11-17T11:21:12Z</time>
      </trkpt>
      <trkpt lat="44.71327" lon="5.1091">
        <ele>323.7</ele>
        <time>2022-11-17T11:21:12Z</time>
      </trkpt>
      <trkpt lat="44.71327" lon="5.10899">
        <ele>325.4</ele>
        <time>2022-11-17T11:21:12Z</time>
      </trkpt>
      <trkpt lat="44.71359" lon="5.10811">
        <ele>337.2</ele>
        <time>2022-11-17T11:21:12Z</time>
      </trkpt>
      <trkpt lat="44.71328" lon="5.10804">
        <ele>339.1</ele>
        <time>2022-11-17T11:21:12Z</time>
      </trkpt>
      <trkpt lat="44.71317" lon="5.10788">
        <ele>336.3</ele>
        <time>2022-11-17T11:21:12Z</time>
      </trkpt>
      <trkpt lat="44.71314" lon="5.10774">
        <ele>333.9</ele>
        <time>2022-11-17T11:21:12Z</time>
      </trkpt>
      <trkpt lat="44.71318" lon="5.10747">
        <ele>332.6</ele>
        <time>2022-11-17T11:21:12Z</time>
      </trkpt>
      <trkpt lat="44.71315" lon="5.10734">
        <ele>330.6</ele>
        <time>2022-11-17T11:21:12Z</time>
      </trkpt>
      <trkpt lat="44.71306" lon="5.1074">
        <ele>327.9</ele>
        <time>2022-11-17T11:21:12Z</time>
      </trkpt>
      <trkpt lat="44.71285" lon="5.10783">
        <ele>327.7</ele>
        <time>2022-11-17T11:21:12Z</time>
      </trkpt>
      <trkpt lat="44.71274" lon="5.1079">
        <ele>327</ele>
        <time>2022-11-17T11:21:12Z</time>
      </trkpt>
      <trkpt lat="44.71234" lon="5.10795">
        <ele>321.4</ele>
        <time>2022-11-17T11:21:12Z</time>
      </trkpt>
      <trkpt lat="44.71214" lon="5.10811">
        <ele>319.8</ele>
        <time>2022-11-17T11:21:12Z</time>
      </trkpt>
      <trkpt lat="44.71177" lon="5.1088">
        <ele>315</ele>
        <time>2022-11-17T11:21:12Z</time>
      </trkpt>
      <trkpt lat="44.71169" lon="5.10937">
        <ele>311.8</ele>
        <time>2022-11-17T11:21:12Z</time>
      </trkpt>
      <trkpt lat="44.7116" lon="5.10934">
        <ele>309.2</ele>
        <time>2022-11-17T11:21:12Z</time>
      </trkpt>
      <trkpt lat="44.71158" lon="5.10904">
        <ele>308.4</ele>
        <time>2022-11-17T11:21:12Z</time>
      </trkpt>
      <trkpt lat="44.7116" lon="5.10877">
        <ele>307.7</ele>
        <time>2022-11-17T11:21:12Z</time>
      </trkpt>
      <trkpt lat="44.71164" lon="5.10859">
        <ele>307.9</ele>
        <time>2022-11-17T11:21:12Z</time>
      </trkpt>
      <trkpt lat="44.71164" lon="5.10848">
        <ele>307.2</ele>
        <time>2022-11-17T11:21:12Z</time>
      </trkpt>
      <trkpt lat="44.71161" lon="5.10837">
        <ele>305.3</ele>
        <time>2022-11-17T11:21:12Z</time>
      </trkpt>
      <trkpt lat="44.71155" lon="5.10845">
        <ele>304</ele>
        <time>2022-11-17T11:21:12Z</time>
      </trkpt>
      <trkpt lat="44.71134" lon="5.10919">
        <ele>301.4</ele>
        <time>2022-11-17T11:21:12Z</time>
      </trkpt>
      <trkpt lat="44.71131" lon="5.10946">
        <ele>300.6</ele>
        <time>2022-11-17T11:21:12Z</time>
      </trkpt>
      <trkpt lat="44.71126" lon="5.10956">
        <ele>298.6</ele>
        <time>2022-11-17T11:21:12Z</time>
      </trkpt>
      <trkpt lat="44.71122" lon="5.10971">
        <ele>296.7</ele>
        <time>2022-11-17T11:21:12Z</time>
      </trkpt>
      <trkpt lat="44.71112" lon="5.11072">
        <ele>287</ele>
        <time>2022-11-17T11:21:12Z</time>
      </trkpt>
      <trkpt lat="44.71116" lon="5.11084">
        <ele>285.4</ele>
        <time>2022-11-17T11:21:12Z</time>
      </trkpt>
      <trkpt lat="44.71171" lon="5.11133">
        <ele>281.6</ele>
        <time>2022-11-17T11:21:12Z</time>
      </trkpt>
      <trkpt lat="44.71177" lon="5.11148">
        <ele>280.1</ele>
        <time>2022-11-17T11:21:12Z</time>
      </trkpt>
      <trkpt lat="44.71176" lon="5.11252">
        <ele>274.7</ele>
        <time>2022-11-17T11:21:12Z</time>
      </trkpt>
      <trkpt lat="44.71165" lon="5.1128">
        <ele>275</ele>
        <time>2022-11-17T11:21:12Z</time>
      </trkpt>
      <trkpt lat="44.71081" lon="5.11409">
        <ele>279.8</ele>
        <time>2022-11-17T11:21:12Z</time>
      </trkpt>
      <trkpt lat="44.71074" lon="5.11425">
        <ele>280.6</ele>
        <time>2022-11-17T11:21:12Z</time>
      </trkpt>
      <trkpt lat="44.71072" lon="5.11463">
        <ele>283.1</ele>
        <time>2022-11-17T11:21:12Z</time>
      </trkpt>
      <trkpt lat="44.71069" lon="5.11476">
        <ele>283.9</ele>
        <time>2022-11-17T11:21:12Z</time>
      </trkpt>
      <trkpt lat="44.71038" lon="5.11545">
        <ele>288.5</ele>
        <time>2022-11-17T11:21:12Z</time>
      </trkpt>
      <trkpt lat="44.71032" lon="5.11576">
        <ele>290.4</ele>
        <time>2022-11-17T11:21:12Z</time>
      </trkpt>
      <trkpt lat="44.71037" lon="5.11615">
        <ele>291.8</ele>
        <time>2022-11-17T11:21:12Z</time>
      </trkpt>
      <trkpt lat="44.71049" lon="5.11656">
        <ele>289</ele>
        <time>2022-11-17T11:21:12Z</time>
      </trkpt>
      <trkpt lat="44.71073" lon="5.11704">
        <ele>287.7</ele>
        <time>2022-11-17T11:21:12Z</time>
      </trkpt>
      <trkpt lat="44.71078" lon="5.11722">
        <ele>285.9</ele>
        <time>2022-11-17T11:21:12Z</time>
      </trkpt>
      <trkpt lat="44.71081" lon="5.11778">
        <ele>279</ele>
        <time>2022-11-17T11:21:12Z</time>
      </trkpt>
      <trkpt lat="44.71093" lon="5.11804">
        <ele>280.8</ele>
        <time>2022-11-17T11:21:12Z</time>
      </trkpt>
      <trkpt lat="44.71096" lon="5.11814">
        <ele>280.3</ele>
        <time>2022-11-17T11:21:12Z</time>
      </trkpt>
      <trkpt lat="44.7113" lon="5.1189">
        <ele>283.2</ele>
        <time>2022-11-17T11:21:12Z</time>
      </trkpt>
      <trkpt lat="44.71139" lon="5.11923">
        <ele>282</ele>
        <time>2022-11-17T11:21:12Z</time>
      </trkpt>
      <trkpt lat="44.71142" lon="5.11949">
        <ele>278.9</ele>
        <time>2022-11-17T11:21:12Z</time>
      </trkpt>
      <trkpt lat="44.71153" lon="5.11994">
        <ele>277.9</ele>
        <time>2022-11-17T11:21:12Z</time>
      </trkpt>
      <trkpt lat="44.71164" lon="5.12012">
        <ele>279.3</ele>
        <time>2022-11-17T11:21:12Z</time>
      </trkpt>
      <trkpt lat="44.71178" lon="5.12055">
        <ele>279.8</ele>
        <time>2022-11-17T11:21:12Z</time>
      </trkpt>
      <trkpt lat="44.71178" lon="5.12098">
        <ele>275.8</ele>
        <time>2022-11-17T11:21:12Z</time>
      </trkpt>
      <trkpt lat="44.71193" lon="5.12189">
        <ele>274.8</ele>
        <time>2022-11-17T11:21:12Z</time>
      </trkpt>
      <trkpt lat="44.71192" lon="5.12205">
        <ele>274</ele>
        <time>2022-11-17T11:21:12Z</time>
      </trkpt>
      <trkpt lat="44.71181" lon="5.12243">
        <ele>269.5</ele>
        <time>2022-11-17T11:21:12Z</time>
      </trkpt>
      <trkpt lat="44.71166" lon="5.1225">
        <ele>265.9</ele>
        <time>2022-11-17T11:21:12Z</time>
      </trkpt>
      <trkpt lat="44.7109" lon="5.12308">
        <ele>252.5</ele>
        <time>2022-11-17T11:21:12Z</time>
      </trkpt>
      <trkpt lat="44.71082" lon="5.12311">
        <ele>252.1</ele>
        <time>2022-11-17T11:21:12Z</time>
      </trkpt>
      <trkpt lat="44.7107" lon="5.12308">
        <ele>252.4</ele>
        <time>2022-11-17T11:21:12Z</time>
      </trkpt>
      <trkpt lat="44.71024" lon="5.1225">
        <ele>257</ele>
        <time>2022-11-17T11:21:12Z</time>
      </trkpt>
      <trkpt lat="44.71017" lon="5.12245">
        <ele>256.8</ele>
        <time>2022-11-17T11:21:12Z</time>
      </trkpt>
      <trkpt lat="44.71007" lon="5.12242">
        <ele>256.7</ele>
        <time>2022-11-17T11:21:12Z</time>
      </trkpt>
      <trkpt lat="44.70997" lon="5.12248">
        <ele>256.4</ele>
        <time>2022-11-17T11:21:12Z</time>
      </trkpt>
      <trkpt lat="44.70965" lon="5.12289">
        <ele>253.4</ele>
        <time>2022-11-17T11:21:12Z</time>
      </trkpt>
      <trkpt lat="44.7095" lon="5.12293">
        <ele>253.5</ele>
        <time>2022-11-17T11:21:12Z</time>
      </trkpt>
      <trkpt lat="44.7094" lon="5.12285">
        <ele>253.8</ele>
        <time>2022-11-17T11:21:12Z</time>
      </trkpt>
      <trkpt lat="44.70932" lon="5.12265">
        <ele>254</ele>
        <time>2022-11-17T11:21:12Z</time>
      </trkpt>
      <trkpt lat="44.7093" lon="5.12248">
        <ele>254.1</ele>
        <time>2022-11-17T11:21:12Z</time>
      </trkpt>
      <trkpt lat="44.70879" lon="5.12278">
        <ele>260.7</ele>
        <time>2022-11-17T11:21:12Z</time>
      </trkpt>
      <trkpt lat="44.70848" lon="5.12313">
        <ele>265.2</ele>
        <time>2022-11-17T11:21:12Z</time>
      </trkpt>
      <trkpt lat="44.70833" lon="5.12351">
        <ele>267.6</ele>
        <time>2022-11-17T11:21:12Z</time>
      </trkpt>
      <trkpt lat="44.70801" lon="5.12504">
        <ele>276.6</ele>
        <time>2022-11-17T11:21:12Z</time>
      </trkpt>
      <trkpt lat="44.70809" lon="5.12669">
        <ele>279.5</ele>
        <time>2022-11-17T11:21:12Z</time>
      </trkpt>
      <trkpt lat="44.70801" lon="5.12664">
        <ele>280.6</ele>
        <time>2022-11-17T11:21:12Z</time>
      </trkpt>
      <trkpt lat="44.70704" lon="5.12705">
        <ele>290.2</ele>
        <time>2022-11-17T11:21:12Z</time>
      </trkpt>
      <trkpt lat="44.70701" lon="5.12691">
        <ele>291</ele>
        <time>2022-11-17T11:21:12Z</time>
      </trkpt>
      <trkpt lat="44.7072" lon="5.12637">
        <ele>291.4</ele>
        <time>2022-11-17T11:21:12Z</time>
      </trkpt>
      <trkpt lat="44.70719" lon="5.12623">
        <ele>292.6</ele>
        <time>2022-11-17T11:21:12Z</time>
      </trkpt>
      <trkpt lat="44.70709" lon="5.1262">
        <ele>294.3</ele>
        <time>2022-11-17T11:21:12Z</time>
      </trkpt>
      <trkpt lat="44.70668" lon="5.1263">
        <ele>300.3</ele>
        <time>2022-11-17T11:21:12Z</time>
      </trkpt>
      <trkpt lat="44.70632" lon="5.1266">
        <ele>306</ele>
        <time>2022-11-17T11:21:12Z</time>
      </trkpt>
      <trkpt lat="44.70614" lon="5.12667">
        <ele>310.3</ele>
        <time>2022-11-17T11:21:12Z</time>
      </trkpt>
      <trkpt lat="44.70577" lon="5.12667">
        <ele>321.7</ele>
        <time>2022-11-17T11:21:12Z</time>
      </trkpt>
      <trkpt lat="44.70564" lon="5.12672">
        <ele>326.5</ele>
        <time>2022-11-17T11:21:12Z</time>
      </trkpt>
      <trkpt lat="44.70546" lon="5.12693">
        <ele>332.6</ele>
        <time>2022-11-17T11:21:12Z</time>
      </trkpt>
      <trkpt lat="44.70532" lon="5.12727">
        <ele>337</ele>
        <time>2022-11-17T11:21:12Z</time>
      </trkpt>
      <trkpt lat="44.70525" lon="5.12717">
        <ele>340.7</ele>
        <time>2022-11-17T11:21:12Z</time>
      </trkpt>
      <trkpt lat="44.70529" lon="5.12589">
        <ele>348.3</ele>
        <time>2022-11-17T11:21:12Z</time>
      </trkpt>
      <trkpt lat="44.70546" lon="5.12513">
        <ele>343.1</ele>
        <time>2022-11-17T11:21:12Z</time>
      </trkpt>
      <trkpt lat="44.70537" lon="5.12506">
        <ele>344.1</ele>
        <time>2022-11-17T11:21:12Z</time>
      </trkpt>
      <trkpt lat="44.70526" lon="5.12515">
        <ele>346.6</ele>
        <time>2022-11-17T11:21:12Z</time>
      </trkpt>
      <trkpt lat="44.70509" lon="5.12521">
        <ele>348.2</ele>
        <time>2022-11-17T11:21:12Z</time>
      </trkpt>
      <trkpt lat="44.70456" lon="5.12678">
        <ele>367.1</ele>
        <time>2022-11-17T11:21:12Z</time>
      </trkpt>
      <trkpt lat="44.70424" lon="5.12877">
        <ele>376.7</ele>
        <time>2022-11-17T11:21:12Z</time>
      </trkpt>
      <trkpt lat="44.7045" lon="5.1298">
        <ele>402.3</ele>
        <time>2022-11-17T11:21:12Z</time>
      </trkpt>
      <trkpt lat="44.70451" lon="5.12992">
        <ele>405</ele>
        <time>2022-11-17T11:21:12Z</time>
      </trkpt>
      <trkpt lat="44.70449" lon="5.13005">
        <ele>408</ele>
        <time>2022-11-17T11:21:12Z</time>
      </trkpt>
      <trkpt lat="44.70391" lon="5.1316">
        <ele>408.7</ele>
        <time>2022-11-17T11:21:12Z</time>
      </trkpt>
      <trkpt lat="44.70385" lon="5.13216">
        <ele>409.4</ele>
        <time>2022-11-17T11:21:12Z</time>
      </trkpt>
      <trkpt lat="44.70391" lon="5.13335">
        <ele>415.7</ele>
        <time>2022-11-17T11:21:12Z</time>
      </trkpt>
      <trkpt lat="44.70404" lon="5.1339">
        <ele>419.4</ele>
        <time>2022-11-17T11:21:12Z</time>
      </trkpt>
      <trkpt lat="44.70424" lon="5.13432">
        <ele>421.9</ele>
        <time>2022-11-17T11:21:12Z</time>
      </trkpt>
      <trkpt lat="44.70455" lon="5.13592">
        <ele>438.5</ele>
        <time>2022-11-17T11:21:12Z</time>
      </trkpt>
      <trkpt lat="44.70464" lon="5.13613">
        <ele>439.2</ele>
        <time>2022-11-17T11:21:12Z</time>
      </trkpt>
      <trkpt lat="44.70485" lon="5.13643">
        <ele>438.6</ele>
        <time>2022-11-17T11:21:12Z</time>
      </trkpt>
      <trkpt lat="44.7049" lon="5.13659">
        <ele>440</ele>
        <time>2022-11-17T11:21:12Z</time>
      </trkpt>
      <trkpt lat="44.70496" lon="5.13729">
        <ele>449.7</ele>
        <time>2022-11-17T11:21:12Z</time>
      </trkpt>
      <trkpt lat="44.7051" lon="5.13754">
        <ele>451.4</ele>
        <time>2022-11-17T11:21:12Z</time>
      </trkpt>
      <trkpt lat="44.70597" lon="5.13856">
        <ele>454.7</ele>
        <time>2022-11-17T11:21:12Z</time>
      </trkpt>
      <trkpt lat="44.70603" lon="5.13873">
        <ele>454.5</ele>
        <time>2022-11-17T11:21:12Z</time>
      </trkpt>
      <trkpt lat="44.70607" lon="5.13907">
        <ele>455</ele>
        <time>2022-11-17T11:21:12Z</time>
      </trkpt>
      <trkpt lat="44.70684" lon="5.14132">
        <ele>466.8</ele>
        <time>2022-11-17T11:21:12Z</time>
      </trkpt>
      <trkpt lat="44.70686" lon="5.14143">
        <ele>467.9</ele>
        <time>2022-11-17T11:21:12Z</time>
      </trkpt>
      <trkpt lat="44.70688" lon="5.14318">
        <ele>475.5</ele>
        <time>2022-11-17T11:21:12Z</time>
      </trkpt>
      <trkpt lat="44.70673" lon="5.14458">
        <ele>481.7</ele>
        <time>2022-11-17T11:21:12Z</time>
      </trkpt>
      <trkpt lat="44.70679" lon="5.14541">
        <ele>482.3</ele>
        <time>2022-11-17T11:21:12Z</time>
      </trkpt>
      <trkpt lat="44.70701" lon="5.14616">
        <ele>482.2</ele>
        <time>2022-11-17T11:21:12Z</time>
      </trkpt>
      <trkpt lat="44.70709" lon="5.14692">
        <ele>483.9</ele>
        <time>2022-11-17T11:21:12Z</time>
      </trkpt>
      <trkpt lat="44.70736" lon="5.14799">
        <ele>493.7</ele>
        <time>2022-11-17T11:21:12Z</time>
      </trkpt>
      <trkpt lat="44.70735" lon="5.14821">
        <ele>495.6</ele>
        <time>2022-11-17T11:21:12Z</time>
      </trkpt>
      <trkpt lat="44.7067" lon="5.15038">
        <ele>495.8</ele>
        <time>2022-11-17T11:21:12Z</time>
      </trkpt>
      <trkpt lat="44.70659" lon="5.15135">
        <ele>507.7</ele>
        <time>2022-11-17T11:21:12Z</time>
      </trkpt>
      <trkpt lat="44.70635" lon="5.15191">
        <ele>507.4</ele>
        <time>2022-11-17T11:21:12Z</time>
      </trkpt>
      <trkpt lat="44.70633" lon="5.15204">
        <ele>507.1</ele>
        <time>2022-11-17T11:21:12Z</time>
      </trkpt>
      <trkpt lat="44.70634" lon="5.15231">
        <ele>507.8</ele>
        <time>2022-11-17T11:21:12Z</time>
      </trkpt>
      <trkpt lat="44.70637" lon="5.15245">
        <ele>509.4</ele>
        <time>2022-11-17T11:21:12Z</time>
      </trkpt>
      <trkpt lat="44.70641" lon="5.15299">
        <ele>512.3</ele>
        <time>2022-11-17T11:21:12Z</time>
      </trkpt>
      <trkpt lat="44.70626" lon="5.15374">
        <ele>505.7</ele>
        <time>2022-11-17T11:21:12Z</time>
      </trkpt>
      <trkpt lat="44.70631" lon="5.15421">
        <ele>505.8</ele>
        <time>2022-11-17T11:21:12Z</time>
      </trkpt>
      <trkpt lat="44.70621" lon="5.15485">
        <ele>500.6</ele>
        <time>2022-11-17T11:21:12Z</time>
      </trkpt>
      <trkpt lat="44.7063" lon="5.15529">
        <ele>499.5</ele>
        <time>2022-11-17T11:21:12Z</time>
      </trkpt>
      <trkpt lat="44.70654" lon="5.15573">
        <ele>500.1</ele>
        <time>2022-11-17T11:21:12Z</time>
      </trkpt>
      <trkpt lat="44.70655" lon="5.15593">
        <ele>499.7</ele>
        <time>2022-11-17T11:21:12Z</time>
      </trkpt>
      <trkpt lat="44.70655" lon="5.15606">
        <ele>500.2</ele>
        <time>2022-11-17T11:21:12Z</time>
      </trkpt>
      <trkpt lat="44.70648" lon="5.15626">
        <ele>500</ele>
        <time>2022-11-17T11:21:12Z</time>
      </trkpt>
      <trkpt lat="44.70638" lon="5.15647">
        <ele>498.4</ele>
        <time>2022-11-17T11:21:12Z</time>
      </trkpt>
      <trkpt lat="44.70611" lon="5.15763">
        <ele>497.7</ele>
        <time>2022-11-17T11:21:12Z</time>
      </trkpt>
      <trkpt lat="44.70559" lon="5.15876">
        <ele>489.6</ele>
        <time>2022-11-17T11:21:12Z</time>
      </trkpt>
      <trkpt lat="44.70554" lon="5.1593">
        <ele>484.4</ele>
        <time>2022-11-17T11:21:12Z</time>
      </trkpt>
      <trkpt lat="44.70557" lon="5.15965">
        <ele>483.9</ele>
        <time>2022-11-17T11:21:12Z</time>
      </trkpt>
      <trkpt lat="44.70556" lon="5.15978">
        <ele>483.7</ele>
        <time>2022-11-17T11:21:12Z</time>
      </trkpt>
      <trkpt lat="44.70523" lon="5.16024">
        <ele>471.9</ele>
        <time>2022-11-17T11:21:12Z</time>
      </trkpt>
      <trkpt lat="44.70502" lon="5.16092">
        <ele>460.1</ele>
        <time>2022-11-17T11:21:12Z</time>
      </trkpt>
      <trkpt lat="44.70503" lon="5.16108">
        <ele>457.2</ele>
        <time>2022-11-17T11:21:12Z</time>
      </trkpt>
      <trkpt lat="44.7052" lon="5.16137">
        <ele>460.1</ele>
        <time>2022-11-17T11:21:12Z</time>
      </trkpt>
      <trkpt lat="44.70531" lon="5.16195">
        <ele>455.7</ele>
        <time>2022-11-17T11:21:12Z</time>
      </trkpt>
      <trkpt lat="44.70525" lon="5.16203">
        <ele>455.1</ele>
        <time>2022-11-17T11:21:12Z</time>
      </trkpt>
      <trkpt lat="44.70516" lon="5.16199">
        <ele>454</ele>
        <time>2022-11-17T11:21:12Z</time>
      </trkpt>
      <trkpt lat="44.70458" lon="5.16151">
        <ele>442</ele>
        <time>2022-11-17T11:21:12Z</time>
      </trkpt>
      <trkpt lat="44.70439" lon="5.16143">
        <ele>437.4</ele>
        <time>2022-11-17T11:21:12Z</time>
      </trkpt>
      <trkpt lat="44.70371" lon="5.1614">
        <ele>432.2</ele>
        <time>2022-11-17T11:21:12Z</time>
      </trkpt>
      <trkpt lat="44.70342" lon="5.16129">
        <ele>426.8</ele>
        <time>2022-11-17T11:21:12Z</time>
      </trkpt>
      <trkpt lat="44.70333" lon="5.16128">
        <ele>426</ele>
        <time>2022-11-17T11:21:12Z</time>
      </trkpt>
      <trkpt lat="44.70298" lon="5.16142">
        <ele>424.5</ele>
        <time>2022-11-17T11:21:12Z</time>
      </trkpt>
      <trkpt lat="44.70288" lon="5.16155">
        <ele>425.5</ele>
        <time>2022-11-17T11:21:12Z</time>
      </trkpt>
      <trkpt lat="44.70256" lon="5.16234">
        <ele>428.8</ele>
        <time>2022-11-17T11:21:12Z</time>
      </trkpt>
      <trkpt lat="44.70222" lon="5.16271">
        <ele>417.5</ele>
        <time>2022-11-17T11:21:12Z</time>
      </trkpt>
      <trkpt lat="44.70217" lon="5.1629">
        <ele>414.4</ele>
        <time>2022-11-17T11:21:12Z</time>
      </trkpt>
      <trkpt lat="44.70224" lon="5.16324">
        <ele>412.8</ele>
        <time>2022-11-17T11:21:12Z</time>
      </trkpt>
      <trkpt lat="44.70225" lon="5.16367">
        <ele>409.2</ele>
        <time>2022-11-17T11:21:12Z</time>
      </trkpt>
      <trkpt lat="44.70208" lon="5.16446">
        <ele>405.2</ele>
        <time>2022-11-17T11:21:12Z</time>
      </trkpt>
      <trkpt lat="44.70193" lon="5.16462">
        <ele>400.8</ele>
        <time>2022-11-17T11:21:12Z</time>
      </trkpt>
      <trkpt lat="44.70171" lon="5.16502">
        <ele>397</ele>
        <time>2022-11-17T11:21:12Z</time>
      </trkpt>
      <trkpt lat="44.70116" lon="5.16583">
        <ele>384.3</ele>
        <time>2022-11-17T11:21:12Z</time>
      </trkpt>
      <trkpt lat="44.70113" lon="5.16595">
        <ele>384</ele>
        <time>2022-11-17T11:21:12Z</time>
      </trkpt>
      <trkpt lat="44.70114" lon="5.16607">
        <ele>385.1</ele>
        <time>2022-11-17T11:21:12Z</time>
      </trkpt>
      <trkpt lat="44.70111" lon="5.16617">
        <ele>384.6</ele>
        <time>2022-11-17T11:21:12Z</time>
      </trkpt>
      <trkpt lat="44.70061" lon="5.16653">
        <ele>373</ele>
        <time>2022-11-17T11:21:12Z</time>
      </trkpt>
      <trkpt lat="44.69938" lon="5.16686">
        <ele>352.1</ele>
        <time>2022-11-17T11:21:12Z</time>
      </trkpt>
      <trkpt lat="44.69898" lon="5.16746">
        <ele>346.4</ele>
        <time>2022-11-17T11:21:12Z</time>
      </trkpt>
      <trkpt lat="44.69895" lon="5.16758">
        <ele>343.9</ele>
        <time>2022-11-17T11:21:12Z</time>
      </trkpt>
      <trkpt lat="44.69901" lon="5.16766">
        <ele>342.5</ele>
        <time>2022-11-17T11:21:12Z</time>
      </trkpt>
      <trkpt lat="44.69956" lon="5.16807">
        <ele>339</ele>
        <time>2022-11-17T11:21:12Z</time>
      </trkpt>
      <trkpt lat="44.69964" lon="5.1681">
        <ele>340.3</ele>
        <time>2022-11-17T11:21:12Z</time>
      </trkpt>
      <trkpt lat="44.69972" lon="5.16808">
        <ele>341.9</ele>
        <time>2022-11-17T11:21:12Z</time>
      </trkpt>
      <trkpt lat="44.69975" lon="5.1682">
        <ele>342</ele>
        <time>2022-11-17T11:21:12Z</time>
      </trkpt>
      <trkpt lat="44.6997" lon="5.1683">
        <ele>340.7</ele>
        <time>2022-11-17T11:21:12Z</time>
      </trkpt>
      <trkpt lat="44.69968" lon="5.1684">
        <ele>340.7</ele>
        <time>2022-11-17T11:21:12Z</time>
      </trkpt>
      <trkpt lat="44.6997" lon="5.16852">
        <ele>341.9</ele>
        <time>2022-11-17T11:21:12Z</time>
      </trkpt>
      <trkpt lat="44.69967" lon="5.16865">
        <ele>342.6</ele>
        <time>2022-11-17T11:21:12Z</time>
      </trkpt>
      <trkpt lat="44.69911" lon="5.16879">
        <ele>336.1</ele>
        <time>2022-11-17T11:21:12Z</time>
      </trkpt>
      <trkpt lat="44.69896" lon="5.1689">
        <ele>335.5</ele>
        <time>2022-11-17T11:21:12Z</time>
      </trkpt>
      <trkpt lat="44.6985" lon="5.16945">
        <ele>334.2</ele>
        <time>2022-11-17T11:21:12Z</time>
      </trkpt>
      <trkpt lat="44.69851" lon="5.16961">
        <ele>335.3</ele>
        <time>2022-11-17T11:21:12Z</time>
      </trkpt>
      <trkpt lat="44.69866" lon="5.17006">
        <ele>340.6</ele>
        <time>2022-11-17T11:21:12Z</time>
      </trkpt>
      <trkpt lat="44.69865" lon="5.17018">
        <ele>341.2</ele>
        <time>2022-11-17T11:21:12Z</time>
      </trkpt>
      <trkpt lat="44.69767" lon="5.17048">
        <ele>331.3</ele>
        <time>2022-11-17T11:21:12Z</time>
      </trkpt>
      <trkpt lat="44.69757" lon="5.17057">
        <ele>330.4</ele>
        <time>2022-11-17T11:21:12Z</time>
      </trkpt>
      <trkpt lat="44.69753" lon="5.17068">
        <ele>330</ele>
        <time>2022-11-17T11:21:12Z</time>
      </trkpt>
      <trkpt lat="44.69749" lon="5.17127">
        <ele>327.2</ele>
        <time>2022-11-17T11:21:12Z</time>
      </trkpt>
      <trkpt lat="44.69758" lon="5.17176">
        <ele>330.5</ele>
        <time>2022-11-17T11:21:12Z</time>
      </trkpt>
      <trkpt lat="44.6975" lon="5.1719">
        <ele>329.7</ele>
        <time>2022-11-17T11:21:12Z</time>
      </trkpt>
      <trkpt lat="44.6971" lon="5.17235">
        <ele>329.7</ele>
        <time>2022-11-17T11:21:12Z</time>
      </trkpt>
      <trkpt lat="44.69702" lon="5.17252">
        <ele>329.4</ele>
        <time>2022-11-17T11:21:12Z</time>
      </trkpt>
      <trkpt lat="44.69697" lon="5.17284">
        <ele>328.7</ele>
        <time>2022-11-17T11:21:12Z</time>
      </trkpt>
      <trkpt lat="44.697" lon="5.17298">
        <ele>329.4</ele>
        <time>2022-11-17T11:21:12Z</time>
      </trkpt>
      <trkpt lat="44.69724" lon="5.17365">
        <ele>331.3</ele>
        <time>2022-11-17T11:21:12Z</time>
      </trkpt>
      <trkpt lat="44.69783" lon="5.17609">
        <ele>319.2</ele>
        <time>2022-11-17T11:21:12Z</time>
      </trkpt>
      <trkpt lat="44.69798" lon="5.17626">
        <ele>320.1</ele>
        <time>2022-11-17T11:21:12Z</time>
      </trkpt>
      <trkpt lat="44.69785" lon="5.17679">
        <ele>310.8</ele>
        <time>2022-11-17T11:21:12Z</time>
      </trkpt>
      <trkpt lat="44.69788" lon="5.1772">
        <ele>301.4</ele>
        <time>2022-11-17T11:21:12Z</time>
      </trkpt>
      <trkpt lat="44.69796" lon="5.17732">
        <ele>299.8</ele>
        <time>2022-11-17T11:21:12Z</time>
      </trkpt>
      <trkpt lat="44.69803" lon="5.17736">
        <ele>300.1</ele>
        <time>2022-11-17T11:21:12Z</time>
      </trkpt>
      <trkpt lat="44.69905" lon="5.17767">
        <ele>301.8</ele>
        <time>2022-11-17T11:21:12Z</time>
      </trkpt>
      <trkpt lat="44.69911" lon="5.17775">
        <ele>299.7</ele>
        <time>2022-11-17T11:21:12Z</time>
      </trkpt>
      <trkpt lat="44.69903" lon="5.1778">
        <ele>298</ele>
        <time>2022-11-17T11:21:12Z</time>
      </trkpt>
      <trkpt lat="44.69838" lon="5.17777">
        <ele>294.6</ele>
        <time>2022-11-17T11:21:12Z</time>
      </trkpt>
      <trkpt lat="44.69778" lon="5.17792">
        <ele>283.5</ele>
        <time>2022-11-17T11:21:12Z</time>
      </trkpt>
      <trkpt lat="44.69794" lon="5.17885">
        <ele>276</ele>
        <time>2022-11-17T11:21:12Z</time>
      </trkpt>
      <trkpt lat="44.69795" lon="5.17903">
        <ele>277</ele>
        <time>2022-11-17T11:21:12Z</time>
      </trkpt>
      <trkpt lat="44.69792" lon="5.17915">
        <ele>277.4</ele>
        <time>2022-11-17T11:21:12Z</time>
      </trkpt>
      <trkpt lat="44.69782" lon="5.17926">
        <ele>275.8</ele>
        <time>2022-11-17T11:21:12Z</time>
      </trkpt>
      <trkpt lat="44.69777" lon="5.17938">
        <ele>274.9</ele>
        <time>2022-11-17T11:21:12Z</time>
      </trkpt>
      <trkpt lat="44.69772" lon="5.18022">
        <ele>272.1</ele>
        <time>2022-11-17T11:21:12Z</time>
      </trkpt>
      <trkpt lat="44.69759" lon="5.18078">
        <ele>270.3</ele>
        <time>2022-11-17T11:21:12Z</time>
      </trkpt>
      <trkpt lat="44.69762" lon="5.18125">
        <ele>270.5</ele>
        <time>2022-11-17T11:21:12Z</time>
      </trkpt>
      <trkpt lat="44.69794" lon="5.18274">
        <ele>275.6</ele>
        <time>2022-11-17T11:21:12Z</time>
      </trkpt>
      <trkpt lat="44.69793" lon="5.18331">
        <ele>279.5</ele>
        <time>2022-11-17T11:21:12Z</time>
      </trkpt>
      <trkpt lat="44.69763" lon="5.18606">
        <ele>276</ele>
        <time>2022-11-17T11:21:12Z</time>
      </trkpt>
      <trkpt lat="44.69759" lon="5.18615">
        <ele>276.4</ele>
        <time>2022-11-17T11:21:12Z</time>
      </trkpt>
      <trkpt lat="44.69741" lon="5.18634">
        <ele>276.3</ele>
        <time>2022-11-17T11:21:12Z</time>
      </trkpt>
      <trkpt lat="44.69715" lon="5.18692">
        <ele>276.9</ele>
        <time>2022-11-17T11:21:12Z</time>
      </trkpt>
      <trkpt lat="44.6969" lon="5.18775">
        <ele>275.6</ele>
        <time>2022-11-17T11:21:12Z</time>
      </trkpt>
      <trkpt lat="44.69674" lon="5.18918">
        <ele>271.2</ele>
        <time>2022-11-17T11:21:12Z</time>
      </trkpt>
      <trkpt lat="44.69705" lon="5.19201">
        <ele>264.2</ele>
        <time>2022-11-17T11:21:12Z</time>
      </trkpt>
      <trkpt lat="44.69683" lon="5.19387">
        <ele>263.4</ele>
        <time>2022-11-17T11:21:12Z</time>
      </trkpt>
      <trkpt lat="44.69674" lon="5.19397">
        <ele>263.4</ele>
        <time>2022-11-17T11:21:12Z</time>
      </trkpt>
      <trkpt lat="44.69673" lon="5.1946">
        <ele>262</ele>
        <time>2022-11-17T11:21:12Z</time>
      </trkpt>
      <trkpt lat="44.69647" lon="5.19622">
        <ele>261.5</ele>
        <time>2022-11-17T11:21:12Z</time>
      </trkpt>
      <trkpt lat="44.69648" lon="5.19645">
        <ele>262.1</ele>
        <time>2022-11-17T11:21:12Z</time>
      </trkpt>
      <trkpt lat="44.69676" lon="5.19827">
        <ele>267.9</ele>
        <time>2022-11-17T11:21:12Z</time>
        <extensions>
          <visugpx:TrkExtension xmlns:visugpx="https://www.visugpx.com/editgpx/">
            <visugpx:node>1</visugpx:node>
            </visugpx:TrkExtension>
        </extensions>
      </trkpt>
    </trkseg>
  </trk>
</gpx>